<- Previous Day | Today | Next Day ->

All Data for 25 November 2021

 

Time A - D Temp A - D Dew Point A - D Humidity A - D Pressure A - D Wind A - D Wind Dir Gust A - D Rain Rate A - D Rain Total
00:00 7.5 5.8 89 1015.9 4.5 N 5.4 0.0 0.0
00:01 7.5 5.8 89 1016.1 3.1 NE 5.4 0.0 0.0
00:02 7.5 5.8 89 1016.0 6.0 E 6.0 0.0 0.0
00:03 7.6 6.1 90 1016.1 3.1 NW 6.0 0.0 0.0
00:04 7.6 6.1 90 1016.0 3.1 NE 6.0 0.0 0.0
00:05 7.6 6.1 90 1016.0 3.1 NW 6.0 0.0 0.0
00:06 7.6 6.1 90 1016.3 3.8 NE 6.0 0.0 0.0
00:07 7.6 6.1 90 1016.0 5.4 NW 6.0 0.0 0.0
00:08 7.6 6.1 90 1016.0 4.5 E 6.0 0.0 0.0
00:09 7.6 6.1 90 1016.3 4.5 NW 6.0 0.0 0.0
00:10 7.7 6.2 90 1016.2 3.8 NE 6.0 0.0 0.0
00:11 7.7 6.2 90 1016.0 7.6 NW 7.6 0.0 0.0
00:12 7.7 6.2 90 1016.2 3.8 NE 7.6 0.0 0.0
00:13 7.7 6.2 90 1016.0 5.4 E 7.6 0.0 0.0
00:14 7.7 6.2 90 1016.1 9.8 N 9.8 0.0 0.0
00:15 7.7 6.2 90 1016.3 6.0 NE 9.8 0.8 0.1
00:17 7.7 6.2 90 1016.0 5.4 E 9.8 0.8 0.1
00:18 7.7 6.2 90 1016.0 4.5 NE 9.8 0.8 0.1
00:19 7.7 6.2 90 1016.2 3.1 NE 9.8 1.5 0.1
00:20 7.7 6.2 90 1016.3 4.5 E 9.8 0.8 0.2
00:21 7.7 6.2 90 1016.0 3.1 N 9.8 1.5 0.2
00:22 7.7 6.2 90 1016.1 3.1 N 9.8 1.5 0.2
00:23 7.7 6.2 90 1015.9 2.2 N 9.8 1.5 0.2
00:24 7.7 6.2 90 1015.9 3.8 NE 9.8 0.8 0.2
00:25 7.7 6.2 90 1015.9 3.8 NE 6.0 0.8 0.2
00:26 7.7 6.2 90 1016.1 3.8 N 5.4 0.0 0.2
00:27 7.7 6.2 90 1015.9 2.2 E 5.4 0.0 0.2
00:28 7.7 6.2 90 1016.0 3.1 N 5.4 0.0 0.2
00:29 7.7 6.2 90 1016.1 3.1 E 5.4 0.0 0.2
00:30 7.7 6.2 90 1016.0 3.1 E 5.4 0.0 0.2
00:31 7.7 6.2 90 1015.9 3.1 NE 5.4 0.0 0.2
00:32 7.7 6.2 90 1016.1 3.1 N 5.4 0.0 0.2
00:33 7.7 6.2 90 1016.1 4.5 N 5.4 0.0 0.2
00:34 7.7 6.2 90 1016.2 6.9 N 6.9 0.0 0.2
00:35 7.7 6.2 90 1016.0 6.9 N 6.9 0.0 0.2
00:36 7.7 6.2 90 1015.9 3.8 NE 6.9 0.0 0.2
00:37 7.7 6.2 90 1016.0 3.8 NE 6.9 0.0 0.2
00:38 7.7 6.2 90 1016.0 5.4 NW 6.9 0.0 0.2
00:39 7.7 6.2 90 1016.0 5.4 N 6.9 0.0 0.2
00:40 7.7 6.2 90 1015.9 10.7 NNW 10.7 0.0 0.2
00:41 7.7 6.2 90 1015.8 5.4 N 10.7 0.0 0.2
00:42 7.8 6.3 90 1016.0 6.0 N 10.7 0.8 0.3
00:43 7.8 6.3 90 1016.1 5.4 E 10.7 0.8 0.3
00:44 7.8 6.3 90 1016.1 5.4 E 10.7 0.8 0.3
00:45 7.8 6.4 91 1016.0 3.8 N 10.7 0.8 0.3
00:46 7.8 6.4 91 1015.8 4.5 NE 10.7 0.8 0.3
00:47 7.8 6.4 91 1015.8 7.6 NE 10.7 0.0 0.3
00:48 7.8 6.4 91 1015.9 9.2 E 10.7 0.0 0.3
00:49 7.8 6.4 91 1015.8 4.5 NE 10.7 0.0 0.3
00:50 7.8 6.4 91 1015.6 5.4 N 9.2 0.0 0.3
00:51 7.8 6.4 91 1015.8 6.9 NE 9.2 0.0 0.3
00:52 7.8 6.4 91 1015.7 4.5 NW 9.2 0.0 0.3
00:53 7.8 6.4 91 1015.8 9.2 W 9.2 0.0 0.3
00:54 7.8 6.4 91 1015.8 9.2 W 9.2 0.0 0.3
00:55 7.8 6.4 91 1015.5 6.9 NW 9.2 0.0 0.3
00:56 7.8 6.4 91 1015.6 6.0 N 9.2 0.0 0.3
00:57 7.8 6.4 91 1015.8 10.7 N 10.7 0.0 0.3
00:58 7.8 6.4 91 1015.8 6.0 NE 10.7 0.0 0.3
00:59 7.8 6.4 91 1015.7 6.0 E 10.7 0.0 0.3
01:00 7.8 6.4 91 1015.7 6.0 SSE 10.7 0.0 0.3
01:01 7.8 6.4 91 1015.7 6.0 SSE 10.7 0.0 0.3
01:02 7.8 6.4 91 1015.7 6.0 SSE 10.7 0.0 0.3
01:03 7.8 6.4 91 1015.8 6.0 SSE 10.7 0.0 0.3
01:04 7.8 6.4 91 1015.9 6.0 SSE 10.7 0.0 0.3
01:05 7.8 6.4 91 1015.8 6.0 SSE 10.7 0.0 0.3
01:06 7.8 6.4 91 1015.7 6.0 SSE 10.7 0.0 0.3
01:07 7.8 6.4 91 1015.5 6.0 NE 6.0 0.0 0.3
01:08 7.8 6.4 91 1015.6 6.9 N 6.9 0.0 0.3
01:09 7.8 6.4 91 1015.7 6.9 N 6.9 0.0 0.3
01:10 7.8 6.4 91 1015.5 6.9 NE 6.9 0.0 0.3
01:11 7.7 6.3 91 1015.6 7.6 NNE 7.6 0.0 0.3
01:12 7.7 6.3 91 1015.6 5.4 NE 7.6 0.0 0.3
01:13 7.7 6.3 91 1015.6 5.4 NE 7.6 0.0 0.3
01:14 7.7 6.3 91 1015.6 9.2 NW 9.2 0.0 0.3
01:15 7.7 6.3 91 1015.6 9.2 NW 9.2 0.0 0.3
01:16 7.7 6.3 91 1015.6 5.4 N 9.2 0.0 0.3
01:17 7.7 6.3 91 1015.7 3.8 N 9.2 0.0 0.3
01:18 7.7 6.3 91 1015.7 4.5 WNW 9.2 0.0 0.3
01:19 7.7 6.3 91 1015.8 6.9 N 9.2 0.0 0.3
01:20 7.7 6.2 90 1015.8 7.6 N 9.2 0.0 0.3
01:21 7.7 6.2 90 1015.9 6.0 NW 9.2 0.0 0.3
01:22 7.7 6.2 90 1015.9 6.0 NW 9.2 0.0 0.3
01:23 7.7 6.2 90 1015.6 6.0 NW 9.2 0.0 0.3
01:24 7.7 6.3 91 1015.9 10.7 NE 10.7 0.0 0.3
01:25 7.7 6.3 91 1015.8 7.6 NE 10.7 0.0 0.3
01:26 7.7 6.3 91 1015.7 5.4 N 10.7 0.0 0.3
01:27 7.7 6.3 91 1015.7 7.6 NNE 10.7 0.0 0.3
01:28 7.7 6.3 91 1015.9 9.2 NE 10.7 0.0 0.3
01:29 7.7 6.3 91 1015.7 13.0 N 13.0 0.0 0.3
01:30 7.8 6.4 91 1015.7 12.1 W 13.0 0.0 0.3
01:31 7.8 6.4 91 1015.8 12.1 N 13.0 0.0 0.3
01:32 7.8 6.4 91 1015.8 6.9 NE 13.0 0.0 0.3
01:33 7.8 6.4 91 1015.8 8.3 NE 13.0 0.0 0.3
01:34 7.8 6.4 91 1015.9 8.3 NE 13.0 0.0 0.3
01:35 7.8 6.4 91 1015.8 7.6 NW 13.0 0.0 0.3
01:36 7.8 6.4 91 1015.9 10.7 NNW 13.0 0.0 0.3
01:37 7.8 6.4 91 1015.8 7.6 N 13.0 0.0 0.3
01:38 7.8 6.4 91 1016.1 6.0 SW 13.0 0.0 0.3
01:39 7.8 6.4 91 1015.8 6.0 N 13.0 0.0 0.3
01:40 7.8 6.4 91 1015.7 6.0 N 12.1 0.0 0.3
01:41 7.8 6.4 91 1016.3 6.9 WNW 12.1 0.0 0.3
01:42 7.8 6.4 91 1016.0 7.6 N 10.7 0.0 0.3
01:43 7.8 6.4 91 1016.1 6.9 NW 10.7 0.0 0.3
01:44 7.8 6.4 91 1016.2 8.3 NE 10.7 0.0 0.3
01:45 7.8 6.4 91 1016.1 10.7 N 10.7 0.0 0.3
01:46 7.8 6.4 91 1016.2 6.9 NW 10.7 0.0 0.3
01:47 7.8 6.4 91 1016.1 5.4 N 10.7 0.0 0.3
01:48 7.8 6.4 91 1016.2 6.9 S 10.7 0.0 0.3
01:49 7.8 6.4 91 1016.2 6.9 SW 10.7 0.0 0.3
01:50 7.8 6.4 91 1016.4 4.5 E 10.7 0.0 0.3
01:51 7.8 6.4 91 1016.2 8.3 NNW 10.7 0.0 0.3
01:52 7.8 6.4 91 1016.3 6.0 NE 10.7 0.0 0.3
01:53 7.8 6.4 91 1016.2 6.9 NE 10.7 0.0 0.3
01:54 7.8 6.4 91 1016.2 9.8 NE 10.7 0.8 0.3
01:55 7.8 6.4 91 1016.3 7.6 NE 10.7 1.5 0.4
01:56 7.8 6.4 91 1016.3 6.0 NE 9.8 1.5 0.4
01:57 7.8 6.4 91 1016.1 5.4 NE 9.8 1.5 0.4
01:58 7.8 6.4 91 1016.3 9.8 NNW 13.6 1.5 0.4
01:59 7.8 6.4 91 1016.3 6.0 N 13.6 0.8 0.4
02:00 7.8 6.4 91 1016.2 10.7 NE 13.6 0.0 0.4
02:01 7.8 6.4 91 1016.2 10.7 E 13.6 0.0 0.4
02:02 7.8 6.4 91 1016.2 6.0 NE 13.6 0.0 0.4
02:03 7.8 6.4 91 1016.3 7.6 NE 13.6 0.0 0.4
02:04 7.8 6.4 91 1016.2 6.0 E 13.6 0.0 0.4
02:05 7.8 6.4 91 1016.2 6.0 E 13.6 0.0 0.4
02:06 7.8 6.4 91 1016.3 9.2 E 13.6 0.0 0.4
02:07 7.8 6.4 91 1016.2 5.4 N 13.6 0.0 0.4
02:08 7.8 6.4 91 1016.2 6.0 WNW 12.1 0.0 0.4
02:09 7.8 6.4 91 1016.1 10.7 N 12.1 0.0 0.4
02:10 7.8 6.4 91 1016.2 7.6 N 12.1 0.0 0.4
02:11 7.8 6.4 91 1016.1 9.8 N 12.1 0.0 0.4
02:12 7.8 6.4 91 1016.3 10.7 N 12.1 0.0 0.4
02:13 7.8 6.4 91 1016.3 9.8 E 12.1 0.0 0.4
02:14 7.8 6.4 91 1016.3 7.6 N 10.7 0.0 0.4
02:15 7.8 6.4 91 1016.4 9.2 NE 10.7 0.0 0.4
02:16 7.8 6.4 91 1016.5 10.7 N 10.7 0.0 0.4
02:17 7.8 6.4 91 1016.4 10.7 N 10.7 0.0 0.4
02:18 7.8 6.4 91 1016.4 10.7 N 10.7 0.0 0.4
02:19 7.8 6.4 91 1016.2 9.2 N 10.7 0.0 0.4
02:20 7.8 6.4 91 1016.4 10.7 N 10.7 0.0 0.4
02:21 7.8 6.4 91 1016.4 11.4 S 11.4 0.0 0.4
02:22 7.8 6.4 91 1016.3 9.2 N 11.4 0.0 0.4
02:23 7.8 6.4 91 1016.3 11.4 N 11.4 0.0 0.4
02:24 7.8 6.4 91 1016.4 11.4 NE 11.4 0.0 0.4
02:25 7.8 6.4 91 1016.2 7.6 NW 11.4 0.0 0.4
02:26 7.8 6.4 91 1016.7 9.2 NE 11.4 0.0 0.4
02:27 7.7 6.3 91 1016.4 12.1 N 12.1 0.0 0.4
02:28 7.7 6.3 91 1016.4 10.7 NW 12.1 0.0 0.4
02:29 7.7 6.3 91 1016.7 7.6 WNW 12.1 0.0 0.4
02:30 7.7 6.3 91 1016.6 6.0 NW 12.1 0.0 0.4
02:31 7.7 6.2 90 1016.4 9.8 NE 12.1 0.0 0.4
02:32 7.7 6.2 90 1016.5 13.0 NW 13.0 0.0 0.4
02:33 7.7 6.2 90 1016.5 13.0 NW 13.0 0.0 0.4
02:34 7.7 6.2 90 1016.4 9.8 N 13.0 0.0 0.4
02:35 7.7 6.2 90 1016.5 8.3 NE 13.0 0.0 0.4
02:36 7.7 6.2 90 1016.4 16.8 N 16.8 0.0 0.4
02:37 7.7 6.2 90 1016.4 16.8 NW 16.8 0.0 0.4
02:38 7.7 6.2 90 1016.5 10.7 SW 16.8 0.0 0.4
02:39 7.7 6.2 90 1016.5 10.7 NE 16.8 0.0 0.4
02:40 7.7 6.2 90 1016.5 12.1 NE 16.8 0.0 0.4
02:41 7.7 6.2 90 1016.6 12.1 N 16.8 0.0 0.4
02:42 7.7 6.2 90 1016.5 9.8 N 16.8 0.0 0.4
02:43 7.7 6.2 90 1016.4 8.3 N 16.8 0.0 0.4
02:44 7.7 6.2 90 1016.6 9.8 N 16.8 0.0 0.4
02:45 7.7 6.2 90 1016.4 9.8 N 16.8 0.0 0.4
02:46 7.7 6.2 90 1016.6 6.9 NE 16.8 0.0 0.4
02:47 7.7 6.2 90 1016.7 6.9 E 16.8 0.0 0.4
02:48 7.7 6.2 90 1016.7 9.8 NE 12.1 0.0 0.4
02:49 7.7 6.2 90 1016.6 12.1 NE 12.1 0.0 0.4
02:50 7.7 6.2 90 1016.6 13.6 NE 13.6 0.0 0.4
02:51 7.7 6.2 90 1016.5 9.2 NE 13.6 0.0 0.4
02:52 7.6 6.1 90 1016.6 11.4 NE 13.6 0.0 0.4
02:53 7.6 6.1 90 1016.6 9.2 N 13.6 0.0 0.4
02:54 7.6 6.1 90 1016.6 9.8 NNE 13.6 0.0 0.4
02:55 7.6 6.1 90 1016.6 10.7 E 13.6 0.0 0.4
02:56 7.6 6.1 90 1016.4 9.2 NE 13.6 0.8 0.4
02:57 7.6 6.1 90 1016.5 6.9 E 13.6 0.8 0.4
02:58 7.6 6.1 90 1016.6 6.0 E 13.6 0.8 0.4
02:59 7.6 6.1 90 1016.6 5.4 N 13.6 0.8 0.4
03:00 7.5 6.0 90 1016.7 3.1 N 11.4 0.8 0.4
03:01 7.5 6.0 90 1016.7 3.1 N 11.4 0.0 0.4
03:02 7.5 6.0 90 1016.7 3.1 N 11.4 0.0 0.4
03:03 7.5 6.0 90 1016.7 3.1 N 10.7 0.0 0.4
03:04 7.5 6.0 90 1016.8 3.1 N 10.7 0.0 0.4
03:05 7.5 6.0 90 1016.7 3.1 N 10.7 0.0 0.4
03:06 7.5 6.0 90 1016.9 3.1 N 9.2 0.0 0.4
03:07 7.5 6.0 90 1016.8 5.4 NE 9.2 0.8 0.5
03:08 7.5 6.0 90 1016.8 6.9 N 6.9 0.8 0.5
03:09 7.5 6.0 90 1016.9 7.6 NW 7.6 0.8 0.5
03:10 7.5 6.0 90 1016.7 10.7 NNE 10.7 0.8 0.5
03:11 7.4 6.7 95 1016.7 14.5 NE 14.5 0.8 0.5
03:12 7.4 6.7 95 1016.9 13.0 N 14.5 0.0 0.5
03:13 7.4 6.7 95 1016.7 7.6 NE 14.5 0.0 0.5
03:14 7.4 6.7 95 1016.9 9.8 WNW 14.5 0.0 0.5
03:15 7.4 6.7 95 1017.0 10.7 N 14.5 0.0 0.5
03:16 7.4 6.7 95 1017.0 10.7 E 14.5 0.0 0.5
03:17 7.4 6.7 95 1016.7 9.2 NE 14.5 0.0 0.5
03:18 7.4 6.7 95 1016.9 11.4 NNE 14.5 0.0 0.5
03:19 7.4 6.7 95 1017.0 12.1 N 14.5 0.0 0.5
03:20 7.4 6.7 95 1016.8 9.8 NE 14.5 0.0 0.5
03:21 7.4 6.7 95 1017.1 9.2 N 14.5 0.0 0.5
03:22 7.4 6.7 95 1016.9 9.2 N 13.0 0.0 0.5
03:23 7.3 6.6 95 1016.9 6.9 NE 12.1 0.0 0.5
03:24 7.3 6.6 95 1017.1 12.1 NE 12.1 0.0 0.5
03:25 7.3 6.6 95 1017.1 9.8 NE 12.1 0.0 0.5
03:26 7.3 6.6 95 1016.8 12.1 NW 12.1 0.0 0.5
03:27 7.3 6.6 95 1016.9 12.1 N 12.1 0.0 0.5
03:28 7.3 6.6 95 1017.1 6.0 NW 12.1 0.0 0.5
03:29 7.3 6.6 95 1017.1 6.0 NW 12.1 0.0 0.5
03:30 7.3 6.6 95 1017.1 13.0 N 13.0 0.0 0.5
03:31 7.2 6.5 95 1016.9 5.4 NE 13.0 0.0 0.5
03:32 7.2 6.5 95 1016.8 5.4 NE 13.0 0.0 0.5
03:33 7.2 6.5 95 1017.1 9.8 E 13.0 0.0 0.5
03:34 7.2 6.5 95 1016.9 9.2 NE 13.0 0.0 0.5
03:35 7.2 6.5 95 1017.1 9.8 N 13.0 0.0 0.5
03:36 7.2 6.5 95 1017.2 11.4 SE 13.0 0.0 0.5
03:37 7.2 6.5 95 1017.4 11.4 SE 13.0 0.0 0.5
03:38 7.2 6.5 95 1017.2 10.7 E 13.0 0.0 0.5
03:39 7.2 6.5 95 1017.2 9.8 NE 13.0 0.0 0.5
03:40 7.2 6.5 95 1017.4 11.4 NE 13.0 0.0 0.5
03:41 7.2 6.5 95 1017.2 10.7 NE 11.4 0.0 0.5
03:42 7.2 6.5 95 1017.1 10.7 NE 11.4 0.0 0.5
03:43 7.2 6.5 95 1017.0 6.9 NE 11.4 0.0 0.5
03:44 7.1 6.4 95 1017.2 9.8 N 11.4 0.0 0.5
03:45 7.2 6.5 95 1017.1 9.8 E 11.4 0.0 0.5
03:46 7.2 6.5 95 1017.1 9.8 E 11.4 0.0 0.5
03:47 7.1 6.4 95 1016.9 9.2 NE 11.4 0.0 0.5
03:48 7.1 6.4 95 1016.9 9.2 NE 11.4 0.0 0.5
03:49 7.1 6.4 95 1016.9 9.2 E 11.4 0.0 0.5
03:50 7.1 6.4 95 1017.1 10.7 NE 12.1 0.0 0.5
03:51 7.1 6.4 95 1017.2 9.8 NW 12.1 0.0 0.5
03:52 7.0 6.3 95 1017.3 12.1 NE 12.1 0.0 0.5
03:53 7.0 6.3 95 1017.2 12.1 NE 12.1 0.0 0.5
03:54 7.0 6.3 95 1017.1 9.8 N 12.1 0.0 0.5
03:55 7.0 6.3 95 1017.2 9.8 NE 12.1 0.0 0.5
03:56 7.0 6.3 95 1017.2 10.7 E 12.1 0.0 0.5
03:57 7.0 6.3 95 1017.2 10.7 E 12.1 0.0 0.5
03:58 7.0 6.3 95 1017.0 8.3 NE 12.1 0.0 0.5
03:59 7.0 6.3 95 1017.3 10.7 NE 12.1 0.0 0.5
04:00 6.9 6.2 95 1017.2 8.3 WSW 12.1 0.0 0.5
04:01 6.9 6.2 95 1017.2 7.6 NE 12.1 0.0 0.5
04:02 6.9 6.2 95 1017.3 6.9 N 12.1 0.0 0.5
04:03 6.9 6.2 95 1017.3 6.9 NE 12.1 0.0 0.5
04:04 6.9 6.2 95 1017.4 7.6 NE 10.7 0.0 0.5
04:05 6.8 6.1 95 1017.3 11.4 N 11.4 0.0 0.5
04:06 6.8 6.1 95 1017.5 11.4 NE 11.4 0.0 0.5
04:07 6.8 6.1 95 1017.4 9.2 E 11.4 0.0 0.5
04:08 6.8 6.1 95 1017.4 9.2 NE 11.4 0.0 0.5
04:09 6.8 6.1 95 1017.4 8.3 SE 11.4 0.0 0.5
04:10 6.8 6.1 95 1017.3 8.3 SE 11.4 0.0 0.5
04:11 6.8 6.1 95 1017.7 7.6 NW 11.4 0.0 0.5
04:12 6.8 6.1 95 1017.7 14.5 E 14.5 0.0 0.5
04:13 6.8 6.1 95 1017.6 14.5 E 14.5 0.0 0.5
04:14 6.8 6.1 95 1017.7 7.6 NE 14.5 0.0 0.5
04:15 6.8 6.1 95 1017.7 6.9 N 14.5 0.0 0.5
04:16 6.8 6.1 95 1017.4 6.9 NE 14.5 0.0 0.5
04:17 6.8 6.1 95 1017.7 8.3 E 14.5 0.0 0.5
04:18 6.8 6.1 95 1017.6 6.9 NE 14.5 0.0 0.5
04:19 6.7 6.0 95 1017.6 6.0 E 14.5 0.0 0.5
04:20 6.7 6.0 95 1017.6 6.9 N 14.5 0.0 0.5
04:21 6.7 6.0 95 1017.7 9.2 NE 14.5 0.0 0.5
04:22 6.7 6.0 95 1017.6 7.6 E 14.5 0.0 0.5
04:23 6.7 6.0 95 1017.6 6.0 N 9.2 0.0 0.5
04:24 6.7 6.0 95 1017.4 6.9 NE 9.2 0.0 0.5
04:25 6.7 6.0 95 1017.4 6.9 NE 9.2 0.0 0.5
04:26 6.7 6.0 95 1017.5 7.6 NE 9.2 0.0 0.5
04:27 6.7 6.0 95 1017.8 6.0 NE 9.2 0.0 0.5
04:28 6.7 6.0 95 1017.7 6.9 NE 9.2 0.0 0.5
04:29 6.7 6.0 95 1017.5 5.4 E 9.2 0.0 0.5
04:30 6.7 6.0 95 1017.7 6.0 NE 9.2 0.0 0.5
04:31 6.6 5.9 95 1017.7 4.5 E 9.2 0.0 0.5
04:32 6.6 5.9 95 1017.5 5.4 NNE 7.6 0.0 0.5
04:33 6.6 5.9 95 1017.5 6.9 NE 7.6 0.0 0.5
04:34 6.6 5.9 95 1017.3 8.3 NE 8.3 0.0 0.5
04:35 6.6 5.9 95 1017.8 9.8 NE 9.8 0.0 0.5
04:36 6.6 5.9 95 1017.5 6.9 NE 9.8 0.0 0.5
04:37 6.6 5.9 95 1017.8 6.0 NE 9.8 0.0 0.5
04:38 6.6 5.9 95 1017.6 6.9 NE 9.8 0.0 0.5
04:39 6.6 5.9 95 1017.5 6.9 SE 9.8 0.0 0.5
04:40 6.6 5.9 95 1017.7 6.9 SE 9.8 0.0 0.5
04:41 6.6 5.9 95 1017.4 5.4 E 9.8 0.0 0.5
04:42 6.6 5.9 95 1017.6 6.0 NE 9.8 0.0 0.5
04:43 6.6 5.9 95 1017.5 5.4 NE 9.8 0.0 0.5
04:44 6.6 5.9 95 1017.5 5.4 E 9.8 0.0 0.5
04:45 6.6 5.9 95 1017.7 7.6 NE 9.8 0.0 0.5
04:46 6.6 5.9 95 1017.6 6.0 NE 9.2 0.0 0.5
04:47 6.6 5.9 95 1017.6 6.0 NE 9.2 0.0 0.5
04:48 6.5 5.8 95 1017.6 5.4 NE 9.2 0.0 0.5
04:49 6.5 5.8 95 1017.6 5.4 NE 9.2 0.0 0.5
04:50 6.5 5.8 95 1017.7 3.8 NE 9.2 0.0 0.5
04:51 6.5 5.8 95 1017.6 3.8 NE 9.2 0.0 0.5
04:52 6.5 5.8 95 1017.7 5.4 NE 9.2 0.0 0.5
04:53 6.5 5.8 95 1017.7 5.4 NE 7.6 0.0 0.5
04:54 6.5 5.8 95 1017.6 4.5 SE 7.6 0.0 0.5
04:55 6.5 5.8 95 1017.7 3.8 NE 7.6 0.0 0.5
04:56 6.5 5.8 95 1017.8 4.5 N 6.0 0.0 0.5
04:57 6.5 5.8 95 1017.9 4.5 N 6.0 0.0 0.5
04:58 6.4 5.5 94 1017.9 4.5 NE 5.4 0.0 0.5
04:59 6.4 5.5 94 1017.7 5.4 E 5.4 0.0 0.5
05:00 6.4 5.5 94 1018.0 5.4 E 5.4 0.0 0.5
05:01 6.4 5.5 94 1017.8 5.4 E 5.4 0.0 0.5
05:02 6.4 5.5 94 1017.7 5.4 E 5.4 0.0 0.5
05:03 6.4 5.5 94 1017.7 5.4 E 5.4 0.0 0.5
05:04 6.4 5.5 94 1017.7 5.4 E 5.4 0.0 0.5
05:05 6.4 5.5 94 1017.8 5.4 E 5.4 0.0 0.5
05:06 6.4 5.5 94 1017.8 5.4 E 5.4 0.0 0.5
05:07 6.2 5.3 94 1017.7 4.5 NE 5.4 0.0 0.5
05:08 6.2 5.3 94 1018.0 4.5 NE 5.4 0.0 0.5
05:09 6.2 5.3 94 1017.7 4.5 NE 5.4 0.0 0.5
05:10 6.2 5.3 94 1018.0 4.5 NE 5.4 0.0 0.5
05:11 6.2 5.3 94 1017.9 4.5 NE 5.4 0.0 0.5
05:12 6.1 5.2 94 1017.8 3.1 NE 5.4 0.0 0.5
05:13 6.1 5.2 94 1017.8 3.8 N 5.4 0.0 0.5
05:14 6.1 5.2 94 1017.6 3.8 NE 5.4 0.0 0.5
05:15 6.0 5.1 94 1017.6 3.1 N 5.4 0.0 0.5
05:16 6.0 5.1 94 1017.7 3.8 E 5.4 0.0 0.5
05:17 6.0 5.1 94 1017.9 3.1 NE 4.5 0.0 0.5
05:18 6.0 5.1 94 1017.7 3.1 NE 4.5 0.0 0.5
05:19 5.9 4.9 93 1017.9 3.1 N 4.5 0.0 0.5
05:20 5.9 4.9 93 1017.6 3.1 NE 4.5 0.0 0.5
05:21 5.9 4.9 93 1017.6 3.1 NE 4.5 0.0 0.5
05:22 5.9 4.9 93 1017.8 2.2 NE 3.8 0.0 0.5
05:23 5.9 4.9 93 1017.9 2.2 NE 3.8 0.0 0.5
05:24 5.8 4.8 93 1017.8 2.2 NE 3.8 0.0 0.5
05:25 5.8 4.8 93 1017.8 3.1 NE 3.8 0.0 0.5
05:26 5.8 4.8 93 1017.7 4.5 NNE 4.5 0.0 0.5
05:27 5.7 4.7 93 1017.6 3.8 E 4.5 0.0 0.5
05:28 5.7 4.7 93 1017.8 3.8 N 4.5 0.0 0.5
05:29 5.7 4.7 93 1017.9 3.1 E 4.5 0.0 0.5
05:30 5.6 4.6 93 1017.7 3.1 NE 4.5 0.0 0.5
05:31 5.6 4.6 93 1017.9 3.1 E 4.5 0.0 0.5
05:32 5.6 4.6 93 1017.8 3.1 NE 4.5 0.0 0.5
05:33 5.6 4.6 93 1017.8 3.1 NE 4.5 0.0 0.5
05:34 5.6 4.6 93 1017.7 3.8 NE 4.5 0.0 0.5
05:35 5.5 4.5 93 1017.9 3.1 NE 4.5 0.0 0.5
05:36 5.5 4.5 93 1017.9 2.2 E 3.8 0.0 0.5
05:37 5.5 4.5 93 1018.0 2.2 NE 3.8 0.0 0.5
05:38 5.5 4.5 93 1017.8 3.1 NE 3.8 0.0 0.5
05:39 5.4 4.4 93 1017.6 3.1 NE 3.8 0.0 0.5
05:40 5.4 4.4 93 1017.7 3.1 NE 3.8 0.0 0.5
05:41 5.4 4.4 93 1017.8 3.8 E 3.8 0.0 0.5
05:42 5.4 4.4 93 1017.7 3.1 E 3.8 0.0 0.5
05:43 5.3 4.3 93 1018.0 2.2 NE 3.8 0.0 0.5
05:44 5.3 4.1 92 1017.9 1.6 NE 3.8 0.0 0.5
05:45 5.3 4.1 92 1017.9 2.2 NE 3.8 0.0 0.5
05:46 5.3 4.1 92 1017.7 2.2 E 3.8 0.0 0.5
05:47 5.3 4.1 92 1018.0 2.2 NE 3.8 0.0 0.5
05:48 5.3 4.1 92 1018.0 3.1 E 3.8 0.0 0.5
05:49 5.3 4.1 92 1018.0 3.1 E 3.8 0.0 0.5
05:50 5.2 4.0 92 1017.7 3.1 NE 3.8 0.0 0.5
05:51 5.2 4.0 92 1017.8 3.1 E 3.8 0.0 0.5
05:52 5.2 4.0 92 1018.1 3.1 NE 3.8 0.0 0.5
05:53 5.2 4.0 92 1018.0 3.1 NE 3.8 0.0 0.5
05:54 5.2 4.0 92 1018.0 3.1 NE 3.8 0.0 0.5
05:55 5.1 3.9 92 1018.0 2.2 NE 3.8 0.0 0.5
05:56 5.1 3.9 92 1017.9 2.2 NE 3.8 0.0 0.5
05:57 5.1 3.9 92 1018.0 1.6 NE 3.8 0.0 0.5
05:58 5.1 3.9 92 1018.0 1.6 NE 3.1 0.0 0.5
05:59 5.1 3.9 92 1018.0 1.6 NE 3.1 0.0 0.5
06:00 5.1 3.9 92 1018.1 1.6 NE 3.1 0.0 0.5
06:01 5.1 3.9 92 1017.8 1.6 N 3.1 0.0 0.5
06:02 5.1 3.9 92 1017.9 1.6 NE 3.1 0.0 0.5
06:03 5.0 3.8 92 1018.0 2.2 NE 3.1 0.0 0.5
06:04 5.0 3.8 92 1018.0 1.6 E 3.1 0.0 0.5
06:05 5.0 3.8 92 1018.0 2.2 SE 2.2 0.0 0.5
06:06 5.0 3.8 92 1017.9 1.6 NW 2.2 0.0 0.5
06:07 5.0 3.8 92 1017.8 1.6 NW 2.2 0.0 0.5
06:08 5.0 3.8 92 1017.8 0.7 N 2.2 0.0 0.5
06:09 5.0 3.8 92 1018.0 3.1 NE 3.1 0.0 0.5
06:10 4.9 3.7 92 1018.1 3.1 NE 3.1 0.0 0.5
06:11 4.9 3.7 92 1018.0 2.2 E 3.1 0.0 0.5
06:12 4.9 3.7 92 1017.9 2.2 NE 3.1 0.0 0.5
06:13 4.9 3.7 92 1018.0 2.2 N 3.1 0.0 0.5
06:14 4.9 3.7 92 1018.1 2.2 NE 3.1 0.0 0.5
06:15 4.9 3.7 92 1018.0 2.2 N 3.1 0.0 0.5
06:16 4.9 3.7 92 1018.2 1.6 NE 3.1 0.0 0.5
06:17 4.9 3.7 92 1018.0 3.1 NE 3.1 0.0 0.5
06:18 4.9 3.7 92 1018.0 3.1 NE 3.1 0.0 0.5
06:19 4.9 3.7 92 1018.1 2.2 N 3.1 0.0 0.5
06:20 5.0 3.8 92 1018.0 2.2 NE 3.1 0.0 0.5
06:21 5.0 3.8 92 1018.1 3.8 E 3.8 0.0 0.5
06:22 5.0 3.8 92 1018.0 2.2 E 3.8 0.0 0.5
06:23 5.0 3.8 92 1017.9 0.7 NE 3.8 0.0 0.5
06:24 5.0 4.0 93 1018.1 2.2 E 3.8 0.0 0.5
06:25 5.0 4.0 93 1018.2 2.2 E 3.8 0.0 0.5
06:26 5.0 4.0 93 1017.9 2.2 NE 3.8 0.0 0.5
06:27 5.1 4.1 93 1018.1 2.2 E 3.8 0.0 0.5
06:28 5.1 4.1 93 1018.3 2.2 NNW 3.8 0.0 0.5
06:29 5.1 4.1 93 1018.0 2.2 E 3.8 0.0 0.5
06:30 5.1 4.1 93 1018.1 0.7 N 3.8 0.0 0.5
06:31 5.1 4.1 93 1018.1 2.2 NW 2.2 0.0 0.5
06:32 5.2 4.2 93 1018.0 1.6 N 2.2 0.0 0.5
06:33 5.2 4.2 93 1018.1 1.6 N 2.2 0.0 0.5
06:34 5.2 4.2 93 1018.0 1.6 N 2.2 0.0 0.5
06:35 5.2 4.2 93 1018.3 1.6 NW 2.2 0.0 0.5
06:36 5.2 4.2 93 1018.0 2.2 NE 2.2 0.0 0.5
06:37 5.2 4.2 93 1018.1 2.2 N 2.2 0.0 0.5
06:38 5.3 4.3 93 1018.3 1.6 N 2.2 0.0 0.5
06:39 5.3 4.3 93 1018.3 3.1 NE 3.1 0.8 0.6
06:40 5.3 4.3 93 1018.2 2.2 NW 3.1 0.8 0.6
06:41 5.3 4.3 93 1018.4 1.6 S 3.1 0.8 0.6
06:42 5.4 4.4 93 1018.2 0.7 NW 3.1 0.8 0.6
06:43 5.4 4.4 93 1018.2 3.1 NW 3.1 0.8 0.6
06:44 5.4 4.4 93 1018.2 2.2 N 3.1 0.0 0.6
06:45 5.4 4.4 93 1018.2 2.2 N 3.1 0.0 0.6
06:46 5.4 4.4 93 1018.3 3.1 N 3.1 0.0 0.6
06:47 5.4 4.4 93 1018.4 2.2 NE 3.1 0.0 0.6
06:48 5.4 4.4 93 1018.4 3.8 NW 3.8 0.0 0.6
06:49 5.4 4.4 93 1018.3 3.8 N 3.8 0.0 0.6
06:50 5.4 4.4 93 1018.5 4.5 N 4.5 0.0 0.6
06:51 5.4 4.4 93 1018.5 3.1 NE 4.5 0.0 0.6
06:52 5.4 4.4 93 1018.6 2.2 NNE 4.5 0.0 0.6
06:53 5.4 4.4 93 1018.3 3.1 NE 4.5 0.0 0.6
06:54 5.4 4.4 93 1018.4 2.2 SW 4.5 0.0 0.6
06:55 5.4 4.4 93 1018.5 1.6 SE 4.5 0.0 0.6
06:56 5.4 4.4 93 1018.3 1.6 N 4.5 0.0 0.6
06:57 5.4 4.4 93 1018.5 3.1 N 4.5 0.0 0.6
06:58 5.4 4.4 93 1018.5 2.2 NNE 4.5 0.0 0.6
06:59 5.4 4.4 93 1018.6 3.1 NE 4.5 0.0 0.6
07:00 5.4 4.4 93 1018.5 3.1 SE 4.5 0.0 0.6
07:01 5.4 4.4 93 1018.5 3.1 SE 3.1 0.0 0.6
07:02 5.4 4.4 93 1018.6 3.1 SE 3.1 0.0 0.6
07:03 5.4 4.4 93 1018.4 3.1 SE 3.1 0.0 0.6
07:04 5.4 4.4 93 1018.6 3.1 SE 3.1 0.0 0.6
07:05 5.4 4.4 93 1018.5 3.1 SE 3.1 0.0 0.6
07:06 5.4 4.4 93 1018.5 3.1 SE 3.1 0.0 0.6
07:07 5.3 4.3 93 1018.5 1.6 NE 3.1 0.0 0.6
07:08 5.3 4.3 93 1018.6 2.2 NE 3.1 0.0 0.6
07:09 5.3 4.3 93 1018.4 3.1 N 3.1 0.0 0.6
07:10 5.3 4.3 93 1018.5 3.1 E 3.1 0.0 0.6
07:11 5.3 4.3 93 1018.8 3.1 N 3.1 0.0 0.6
07:12 5.3 4.3 93 1018.5 3.1 NW 3.1 0.0 0.6
07:13 5.3 4.3 93 1018.7 3.1 E 3.1 0.0 0.6
07:14 5.3 4.3 93 1018.7 3.1 E 3.1 0.0 0.6
07:15 5.3 4.3 93 1018.8 3.1 NE 3.8 0.0 0.6
07:16 5.3 4.3 93 1018.6 3.1 E 3.8 0.0 0.6
07:17 5.3 4.3 93 1018.7 3.1 NE 3.8 0.0 0.6
07:18 5.3 4.3 93 1018.7 2.2 E 3.8 0.0 0.6
07:19 5.3 4.3 93 1018.8 2.2 E 3.8 0.0 0.6
07:20 5.3 4.3 93 1018.7 3.8 NE 3.8 0.0 0.6
07:21 5.3 4.3 93 1018.7 2.2 N 3.8 0.0 0.6
07:22 5.4 4.4 93 1018.7 3.1 NE 3.8 0.0 0.6
07:23 5.3 4.3 93 1018.6 2.2 N 3.8 0.0 0.6
07:24 5.3 4.3 93 1018.5 5.4 NE 5.4 0.0 0.6
07:25 5.4 4.4 93 1018.9 3.8 NE 5.4 0.0 0.6
07:26 5.3 4.3 93 1018.8 3.8 N 5.4 0.0 0.6
07:27 5.4 4.4 93 1018.6 5.4 N 5.4 0.0 0.6
07:28 5.3 4.3 93 1018.6 5.4 NE 5.4 0.0 0.6
07:29 5.3 4.3 93 1018.7 5.4 NW 5.4 0.0 0.6
07:30 5.3 4.3 93 1018.6 5.4 NE 5.4 0.0 0.6
07:31 5.4 4.4 93 1018.7 6.9 N 6.9 0.0 0.6
07:32 5.4 4.4 93 1018.7 5.4 N 6.9 0.0 0.6
07:33 5.4 4.4 93 1018.8 2.2 N 6.9 0.0 0.6
07:34 5.4 4.4 93 1018.9 3.1 SE 6.9 0.0 0.6
07:35 5.4 4.4 93 1018.8 5.4 NE 6.9 0.0 0.6
07:36 5.4 4.4 93 1018.5 3.8 NNE 6.9 0.0 0.6
07:37 5.4 4.4 93 1018.6 3.8 NE 6.9 0.0 0.6
07:38 5.5 4.5 93 1018.9 3.8 NE 6.9 0.0 0.6
07:39 5.5 4.5 93 1018.9 3.8 E 6.9 0.0 0.6
07:40 5.5 4.5 93 1018.9 3.8 E 6.9 0.0 0.6
07:41 5.5 4.5 93 1019.0 3.8 NE 5.4 0.0 0.6
07:42 5.5 4.5 93 1019.0 3.8 NE 5.4 0.0 0.6
07:43 5.5 4.5 93 1018.7 3.1 E 5.4 0.0 0.6
07:44 5.5 4.5 93 1018.8 3.1 E 5.4 0.0 0.6
07:45 5.5 4.5 93 1018.8 6.0 N 6.0 0.0 0.6
07:46 5.5 4.5 93 1018.7 3.8 E 6.0 0.0 0.6
07:47 5.6 4.6 93 1018.9 3.8 NE 6.0 0.0 0.6
07:48 5.6 4.6 93 1018.9 3.1 NW 6.0 0.0 0.6
07:49 5.6 4.6 93 1019.0 3.8 NW 6.0 0.0 0.6
07:50 5.6 4.6 93 1019.0 1.6 ESE 6.0 0.0 0.6
07:51 5.6 4.6 93 1019.0 4.5 NE 6.0 0.0 0.6
07:52 5.6 4.6 93 1018.9 6.9 E 6.9 0.0 0.6
07:53 5.6 4.6 93 1019.1 6.9 N 6.9 0.0 0.6
07:54 5.6 4.6 93 1019.0 6.9 NE 6.9 0.0 0.6
07:55 5.6 4.6 93 1019.1 6.9 NE 6.9 0.0 0.6
07:56 5.6 4.6 93 1019.1 3.1 NE 6.9 0.0 0.6
07:57 5.7 4.7 93 1018.9 4.5 N 6.9 0.0 0.6
07:58 5.7 4.7 93 1019.1 3.8 N 6.9 0.0 0.6
07:59 5.7 4.5 92 1019.1 5.4 E 6.9 0.0 0.6
08:00 5.7 4.5 92 1019.1 3.8 SE 6.9 0.0 0.6
08:01 5.7 4.5 92 1019.1 3.8 N 6.9 0.0 0.6
08:02 5.7 4.5 92 1019.1 4.5 NE 6.9 0.0 0.6
08:03 5.8 4.6 92 1019.3 5.4 E 6.9 0.0 0.6
08:04 5.8 4.6 92 1019.0 3.1 N 6.9 0.0 0.6
08:05 5.8 4.6 92 1018.9 3.1 N 5.4 0.0 0.6
08:06 5.8 4.6 92 1019.0 3.1 N 5.4 0.0 0.6
08:07 5.8 4.6 92 1019.3 3.1 NE 5.4 0.0 0.6
08:08 5.8 4.6 92 1019.4 3.1 N 5.4 0.0 0.6
08:09 5.8 4.6 92 1019.1 3.1 NW 5.4 0.0 0.6
08:10 5.8 4.6 92 1019.1 3.1 NW 5.4 0.0 0.6
08:11 5.8 4.6 92 1019.1 4.5 E 5.4 0.0 0.6
08:12 5.8 4.6 92 1019.1 4.5 NE 5.4 0.0 0.6
08:13 5.8 4.6 92 1019.1 2.2 E 5.4 0.0 0.6
08:14 5.8 4.6 92 1019.1 3.8 NE 5.4 0.0 0.6
08:15 5.8 4.6 92 1019.2 3.8 NNE 4.5 0.0 0.6
08:16 5.8 4.6 92 1019.1 4.5 NE 4.5 0.0 0.6
08:17 5.8 4.6 92 1019.2 3.8 N 4.5 0.0 0.6
08:18 5.8 4.6 92 1019.0 3.8 SW 4.5 0.0 0.6
08:19 5.8 4.6 92 1019.1 2.2 NW 4.5 0.0 0.6
08:20 5.9 4.7 92 1019.3 3.1 NE 4.5 0.0 0.6
08:21 5.9 4.7 92 1019.4 3.1 N 4.5 0.0 0.6
08:22 5.9 4.7 92 1019.3 3.8 NW 4.5 0.0 0.6
08:23 5.9 4.7 92 1019.2 3.8 NE 4.5 0.0 0.6
08:24 6.0 4.8 92 1019.2 3.8 N 4.5 0.0 0.6
08:25 6.0 4.8 92 1019.1 4.5 NE 4.5 0.0 0.6
08:26 6.0 4.8 92 1019.1 6.0 N 6.0 0.0 0.6
08:27 6.1 4.9 92 1019.3 4.5 NE 6.0 0.0 0.6
08:28 6.1 4.9 92 1019.5 5.4 N 6.0 0.0 0.6
08:29 6.1 4.9 92 1019.5 5.4 NE 6.0 0.0 0.6
08:30 6.2 5.0 92 1019.2 4.5 NW 6.0 0.0 0.6
08:31 6.2 5.0 92 1019.4 6.9 E 6.9 0.0 0.6
08:32 6.3 5.1 92 1019.4 5.4 NE 8.3 0.0 0.6
08:33 6.3 5.1 92 1019.5 4.5 NNE 8.3 0.0 0.6
08:34 6.3 4.9 91 1019.4 6.0 NE 8.3 0.0 0.6
08:35 6.3 4.9 91 1019.3 9.2 E 9.2 0.0 0.6
08:36 6.3 4.9 91 1019.4 9.8 NE 9.8 0.0 0.6
08:37 6.3 4.9 91 1019.4 6.0 E 9.8 0.0 0.6
08:38 6.3 4.9 91 1019.4 6.0 E 9.8 0.0 0.6
08:39 6.3 4.9 91 1019.1 9.2 E 9.8 0.0 0.6
08:40 6.3 4.9 91 1019.4 6.9 N 9.8 0.0 0.6
08:41 6.3 4.9 91 1019.4 5.4 NE 9.8 0.0 0.6
08:42 6.3 4.9 91 1019.5 4.5 N 9.8 0.0 0.6
08:43 6.3 4.9 91 1019.5 5.4 E 9.8 0.0 0.6
08:44 6.3 4.9 91 1019.4 3.8 NE 9.8 0.0 0.6
08:45 6.3 4.9 91 1019.5 3.8 NE 9.8 0.0 0.6
08:46 6.3 4.8 90 1019.4 4.5 E 9.8 0.0 0.6
08:47 6.3 4.8 90 1019.5 6.0 NE 9.2 0.0 0.6
08:48 6.3 4.8 90 1019.5 6.0 NNE 9.2 0.0 0.6
08:49 6.3 4.8 90 1019.5 5.4 N 6.9 0.0 0.6
08:50 6.3 4.8 90 1019.5 5.4 N 6.0 0.0 0.6
08:51 6.3 4.8 90 1019.4 5.4 NE 6.0 0.0 0.6
08:52 6.3 4.8 90 1019.5 8.3 N 8.3 0.0 0.6
08:53 6.3 4.8 90 1019.6 8.3 NE 8.3 0.0 0.6
08:54 6.3 4.8 90 1019.6 6.0 N 8.3 0.0 0.6
08:55 6.3 4.8 90 1019.6 5.4 E 8.3 0.0 0.6
08:56 6.3 4.8 90 1019.4 6.0 NE 8.3 0.0 0.6
08:57 6.3 4.8 90 1019.6 6.0 NE 8.3 0.0 0.6
08:58 6.3 4.8 90 1019.6 6.9 NE 8.3 0.0 0.6
08:59 6.4 4.9 90 1019.6 6.9 SE 8.3 0.0 0.6
09:00 6.4 4.9 90 1019.6 4.5 NE 8.3 0.0 0.6
09:01 6.4 4.9 90 1019.5 4.5 NE 8.3 0.0 0.6
09:02 6.4 4.9 90 1019.5 4.5 NE 8.3 0.0 0.6
09:03 6.5 4.8 89 1019.5 6.9 NE 6.9 0.0 0.6
09:04 6.5 4.8 89 1019.7 4.5 NE 6.9 0.0 0.6
09:05 6.5 4.8 89 1019.6 5.4 N 6.9 0.0 0.6
09:06 6.5 4.8 89 1019.7 4.5 N 6.9 0.0 0.6
09:07 6.6 4.9 89 1019.6 5.4 N 6.9 0.0 0.6
09:08 6.6 4.9 89 1019.6 3.8 E 6.9 0.0 0.6
09:09 6.6 4.9 89 1019.6 5.4 NE 6.9 0.0 0.6
09:10 6.6 4.9 89 1019.7 4.5 NW 6.9 0.0 0.6
09:11 6.6 4.9 89 1019.6 7.6 N 7.6 0.0 0.6
09:12 6.6 4.9 89 1019.8 4.5 N 7.6 0.0 0.6
09:13 6.6 4.9 89 1019.8 3.8 NE 7.6 0.0 0.6
09:14 6.6 4.9 89 1019.9 4.5 NW 7.6 0.0 0.6
09:15 6.7 5.0 89 1019.7 3.8 NE 7.6 0.0 0.6
09:16 6.7 5.0 89 1019.9 4.5 E 7.6 0.0 0.6
09:17 6.7 5.0 89 1019.8 4.5 NE 7.6 0.0 0.6
09:18 6.7 5.0 89 1019.8 4.5 E 7.6 0.0 0.6
09:19 6.7 5.0 89 1019.6 2.2 N 7.6 0.0 0.6
09:20 6.7 5.0 89 1019.6 3.8 N 7.6 0.0 0.6
09:21 6.7 5.0 89 1019.7 3.8 NE 7.6 0.0 0.6
09:22 6.8 5.1 89 1019.7 6.9 NE 6.9 0.0 0.6
09:23 6.8 5.1 89 1019.6 9.2 NW 9.2 0.0 0.6
09:24 6.8 5.1 89 1019.8 9.2 NW 9.2 0.0 0.6
09:25 6.8 5.0 88 1019.7 4.5 NW 9.2 0.0 0.6
09:26 6.8 5.0 88 1019.7 6.9 N 9.2 0.0 0.6
09:27 6.9 5.1 88 1019.5 8.3 NW 9.2 0.0 0.6
09:28 7.0 5.2 88 1019.7 12.1 N 12.1 0.0 0.6
09:29 7.0 5.2 88 1019.9 12.1 N 12.1 0.0 0.6
09:30 7.0 5.2 88 1019.8 12.1 N 12.1 0.0 0.6
09:31 7.1 5.1 87 1019.8 7.6 NW 12.1 0.0 0.6
09:32 7.2 5.2 87 1019.9 8.3 N 12.1 0.0 0.6
09:33 7.3 5.3 87 1019.8 8.3 NE 12.1 0.0 0.6
09:34 7.3 5.3 87 1019.8 6.9 NE 12.1 0.0 0.6
09:35 7.3 5.1 86 1020.0 7.6 S 12.1 0.0 0.6
09:36 7.4 5.2 86 1020.0 7.6 N 12.1 0.0 0.6
09:37 7.4 5.2 86 1019.9 6.0 NE 12.1 0.0 0.6
09:38 7.4 5.2 86 1019.9 6.0 NE 12.1 0.0 0.6
09:39 7.5 4.3 80 1020.1 6.0 NW 12.1 0.0 0.6
09:40 7.5 4.3 80 1020.1 6.0 NW 12.1 0.0 0.6
09:41 7.6 4.4 80 1020.1 6.9 E 8.3 0.0 0.6
09:42 7.6 4.4 80 1020.0 6.9 NE 8.3 0.0 0.6
09:43 7.7 4.5 80 1020.2 4.5 N 8.3 0.0 0.6
09:44 7.7 4.5 80 1020.1 6.9 E 7.6 0.0 0.6
09:45 7.7 4.5 80 1019.9 4.5 E 7.6 0.0 0.6
09:46 7.7 4.3 79 1020.0 8.3 NE 8.3 0.0 0.6
09:47 7.8 4.4 79 1020.1 5.4 NE 8.3 0.0 0.6
09:48 7.8 4.4 79 1019.9 6.0 N 8.3 0.0 0.6
09:49 7.8 4.4 79 1020.2 6.9 NE 8.3 0.0 0.6
09:50 7.8 4.4 79 1020.1 6.9 NE 8.3 0.0 0.6
09:51 7.8 4.4 79 1020.1 5.4 NE 8.3 0.0 0.6
09:52 7.8 4.4 79 1019.9 6.0 NNW 8.3 0.0 0.6
09:53 7.8 4.4 79 1020.0 6.0 NE 8.3 0.0 0.6
09:54 7.8 4.4 79 1020.1 6.0 N 8.3 0.0 0.6
09:55 7.9 4.5 79 1020.2 7.6 NE 8.3 0.0 0.6
09:56 7.9 4.5 79 1020.1 6.9 N 8.3 0.0 0.6
09:57 7.9 4.5 79 1020.1 6.9 NE 7.6 0.0 0.6
09:58 7.9 4.5 79 1020.1 6.9 E 7.6 0.0 0.6
09:59 7.9 4.5 79 1020.3 6.0 NE 7.6 0.0 0.6
10:00 7.9 4.5 79 1020.1 7.6 NE 7.6 0.0 0.6
10:01 7.9 4.5 79 1020.0 7.6 NE 7.6 0.0 0.6
10:02 7.9 4.5 79 1020.0 7.6 NE 7.6 0.0 0.6
10:03 8.0 4.6 79 1020.2 7.6 NE 7.6 0.0 0.6
10:04 8.1 4.7 79 1020.3 6.9 NE 7.6 0.0 0.6
10:05 8.1 4.7 79 1020.2 6.9 NE 7.6 0.0 0.6
10:06 8.1 4.7 79 1020.2 6.9 NE 7.6 0.0 0.6
10:07 8.2 4.8 79 1020.3 6.9 NE 9.2 0.0 0.6
10:08 8.2 4.8 79 1020.2 6.9 NE 9.2 0.0 0.6
10:09 8.2 4.8 79 1020.3 8.3 NE 9.2 0.0 0.6
10:10 8.2 4.8 79 1020.1 6.0 NE 9.2 0.0 0.6
10:11 8.3 4.9 79 1020.3 4.5 NE 9.2 0.0 0.6
10:12 8.4 5.0 79 1020.3 7.6 NE 9.2 0.0 0.6
10:13 8.4 5.0 79 1020.3 5.4 E 9.2 0.0 0.6
10:14 8.5 5.1 79 1020.2 6.0 E 9.2 0.0 0.6
10:15 8.6 5.2 79 1020.5 5.4 NE 9.2 0.0 0.6
10:16 8.7 5.3 79 1020.2 6.9 NE 9.2 0.0 0.6
10:17 8.7 5.3 79 1020.2 4.5 N 8.3 0.0 0.6
10:18 8.8 5.4 79 1020.2 5.4 NE 8.3 0.0 0.6
10:19 8.8 5.4 79 1020.2 8.3 NE 8.3 0.0 0.6
10:20 8.9 5.5 79 1020.3 3.8 NE 8.3 0.0 0.6
10:21 8.9 5.5 79 1020.3 3.8 NE 8.3 0.0 0.6
10:22 8.9 5.5 79 1020.3 3.8 NE 8.3 0.0 0.6
10:23 9.0 5.6 79 1020.2 4.5 NE 8.3 0.0 0.6
10:24 9.1 5.7 79 1020.3 6.9 NE 8.3 0.0 0.6
10:25 9.1 5.5 78 1020.2 7.6 NE 8.3 0.0 0.6
10:26 9.1 5.5 78 1020.1 7.6 NE 8.3 0.0 0.6
10:27 9.2 5.6 78 1020.2 6.0 E 9.2 0.0 0.6
10:28 9.2 5.4 77 1020.0 6.9 E 9.2 0.0 0.6
10:29 9.2 5.4 77 1020.2 9.8 NE 9.8 0.0 0.6
10:30 9.2 5.4 77 1020.1 9.8 NE 9.8 0.0 0.6
10:31 9.2 5.2 76 1020.3 7.6 NE 9.8 0.0 0.6
10:32 9.3 5.3 76 1020.4 9.8 ESE 9.8 0.0 0.6
10:33 9.2 5.2 76 1020.2 7.6 NW 9.8 0.0 0.6
10:34 9.2 5.2 76 1020.2 6.9 N 9.8 0.0 0.6
10:35 9.2 5.2 76 1020.1 6.9 SW 9.8 0.0 0.6
10:36 9.2 5.2 76 1020.3 7.6 N 9.8 0.0 0.6
10:37 9.2 5.0 75 1020.1 7.6 NE 9.8 0.0 0.6
10:38 9.2 5.0 75 1020.4 6.0 E 9.8 0.0 0.6
10:39 9.1 4.9 75 1020.4 6.9 NE 9.8 0.0 0.6
10:40 9.1 4.9 75 1020.1 6.9 E 9.8 0.0 0.6
10:41 9.0 4.8 75 1020.5 7.6 NE 9.8 0.0 0.6
10:42 9.0 4.8 75 1020.4 9.8 E 9.8 0.0 0.6
10:43 9.0 4.8 75 1020.3 6.9 N 9.8 0.0 0.6
10:44 9.0 4.8 75 1020.4 6.0 E 9.8 0.0 0.6
10:45 9.0 4.8 75 1020.5 6.9 NE 9.8 0.0 0.6
10:46 8.9 4.7 75 1020.4 6.9 W 9.8 0.0 0.6
10:47 8.9 4.7 75 1020.2 7.6 E 9.8 0.0 0.6
10:48 8.9 4.7 75 1020.1 9.2 N 9.8 0.0 0.6
10:49 8.9 4.7 75 1020.3 6.0 SE 9.8 0.0 0.6
10:50 8.9 4.7 75 1020.4 6.0 SE 9.8 0.0 0.6
10:51 8.9 4.9 76 1020.0 6.9 N 9.8 0.0 0.6
10:52 8.9 4.9 76 1020.3 9.2 NE 9.8 0.0 0.6
10:53 9.0 5.0 76 1020.3 8.3 NE 9.2 0.0 0.6
10:54 9.0 5.0 76 1020.6 8.3 N 9.2 0.0 0.6
10:55 9.1 5.3 77 1020.3 8.3 NW 9.2 0.0 0.6
10:56 9.1 5.3 77 1020.5 12.1 N 12.1 0.0 0.6
10:57 9.1 5.3 77 1020.2 11.4 N 12.1 0.0 0.6
10:58 9.2 5.2 76 1020.3 6.0 SW 12.1 0.0 0.6
10:59 9.2 5.2 76 1020.2 6.9 W 12.1 0.0 0.6
11:00 9.3 5.3 76 1020.1 6.9 NE 12.1 0.0 0.6
11:01 9.3 5.3 76 1020.2 6.9 NE 12.1 0.0 0.6
11:02 9.3 5.3 76 1020.1 6.9 NE 12.1 0.0 0.6
11:03 9.3 5.3 76 1020.3 6.9 NE 12.1 0.0 0.6
11:04 9.3 5.3 76 1020.1 6.9 NE 12.1 0.0 0.6
11:05 9.3 5.3 76 1020.1 6.9 NE 12.1 0.0 0.6
11:06 9.3 5.3 76 1020.2 6.9 NE 12.1 0.0 0.6
11:07 9.3 5.3 76 1020.1 6.9 NE 11.4 0.0 0.6
11:08 9.3 5.3 76 1020.2 6.9 NE 6.9 0.0 0.6
11:09 9.6 5.2 74 1020.2 6.9 NE 6.9 0.0 0.6
11:10 9.7 5.3 74 1020.1 9.2 NE 9.2 0.0 0.6
11:11 9.7 5.1 73 1020.0 15.9 N 15.9 0.0 0.6
11:12 9.7 5.1 73 1020.3 9.8 N 15.9 0.0 0.6
11:13 9.7 4.9 72 1020.1 11.4 NE 15.9 0.0 0.6
11:14 9.7 4.9 72 1020.1 11.4 NE 15.9 0.0 0.6
11:15 9.8 4.8 71 1020.2 6.0 S 15.9 0.0 0.6
11:16 9.8 4.8 71 1020.0 6.9 E 15.9 0.0 0.6
11:17 9.8 4.8 71 1020.1 8.3 NE 15.9 0.0 0.6
11:18 9.8 4.8 71 1020.2 11.4 NNE 15.9 0.0 0.6
11:19 9.9 4.9 71 1020.0 9.8 NE 15.9 0.0 0.6
11:20 9.9 4.7 70 1020.3 9.2 SW 15.9 0.0 0.6
11:21 9.9 4.7 70 1020.2 5.4 NE 15.9 0.0 0.6
11:22 10.0 4.8 70 1020.2 5.4 N 11.4 0.0 0.6
11:23 10.0 4.8 70 1020.1 9.8 N 11.4 0.0 0.6
11:24 10.1 4.9 70 1020.0 9.8 N 11.4 0.0 0.6
11:25 10.1 5.1 71 1020.1 7.6 N 11.4 0.0 0.6
11:26 10.2 5.2 71 1020.1 7.6 NE 11.4 0.0 0.6
11:27 10.2 5.2 71 1019.9 9.8 E 11.4 0.0 0.6
11:28 10.3 5.3 71 1020.1 10.7 NE 11.4 0.0 0.6
11:29 10.3 5.1 70 1019.8 10.7 NE 10.7 0.0 0.6
11:30 10.3 5.1 70 1019.9 6.9 NNE 10.7 0.0 0.6
11:31 10.4 5.2 70 1020.0 6.0 NW 10.7 0.0 0.6
11:32 10.5 5.5 71 1020.0 12.1 N 12.1 0.0 0.6
11:33 10.5 5.5 71 1019.6 10.7 SE 12.1 0.0 0.6
11:34 10.5 5.3 70 1019.9 6.0 NE 12.1 0.0 0.6
11:35 10.5 5.3 70 1020.0 6.0 NNE 12.1 0.0 0.6
11:36 10.5 5.3 70 1020.0 9.2 NE 12.1 0.0 0.6
11:37 10.5 5.3 70 1020.0 9.2 NE 12.1 0.0 0.6
11:38 10.6 5.4 70 1019.8 8.3 NW 12.1 0.0 0.6
11:39 10.6 5.4 70 1020.0 13.0 E 13.0 0.0 0.6
11:40 10.5 5.3 70 1019.8 13.0 NW 13.0 0.0 0.6
11:41 10.6 5.4 70 1019.9 7.6 NW 13.0 0.0 0.6
11:42 10.5 5.3 70 1019.7 7.6 NE 13.0 0.0 0.6
11:43 10.6 5.4 70 1019.6 9.2 S 13.0 0.0 0.6
11:44 10.6 5.4 70 1019.9 9.8 NE 13.0 0.0 0.6
11:45 10.6 5.4 70 1019.7 9.8 NE 13.0 0.0 0.6
11:46 10.6 5.4 70 1019.8 9.8 NE 13.0 0.0 0.6
11:47 10.6 5.4 70 1019.6 8.3 NW 13.0 0.0 0.6
11:48 10.6 5.4 70 1019.9 11.4 N 13.0 0.0 0.6
11:49 10.6 5.4 70 1019.9 8.3 N 13.0 0.0 0.6
11:50 10.7 5.5 70 1019.9 8.3 NE 11.4 0.0 0.6
11:51 10.7 5.5 70 1019.8 6.0 NE 11.4 0.0 0.6
11:52 10.7 5.5 70 1019.8 7.6 N 11.4 0.0 0.6
11:53 10.8 5.6 70 1019.7 8.3 NE 11.4 0.0 0.6
11:54 10.8 5.6 70 1019.8 6.9 NW 11.4 0.0 0.6
11:55 10.9 5.6 70 1019.7 7.6 N 11.4 0.0 0.6
11:56 10.9 5.6 70 1019.7 5.4 N 11.4 0.0 0.6
11:57 11.0 5.7 70 1019.5 7.6 NE 11.4 0.0 0.6
11:58 11.0 5.7 70 1019.7 11.4 NE 11.4 0.0 0.6
11:59 11.0 5.7 70 1019.8 10.7 N 11.4 0.0 0.6
12:00 11.1 5.8 70 1019.7 6.0 NW 11.4 0.0 0.6
12:01 11.1 5.8 70 1019.6 5.4 NNE 11.4 0.0 0.6
12:02 11.1 5.8 70 1019.6 8.3 NW 11.4 0.0 0.6
12:03 11.1 5.8 70 1019.7 6.0 W 11.4 0.0 0.6
12:04 11.2 5.9 70 1019.4 9.2 N 11.4 0.0 0.6
12:05 11.2 5.9 70 1019.4 9.2 NE 11.4 0.0 0.6
12:06 11.1 5.8 70 1019.6 11.4 W 11.4 0.0 0.6
12:07 11.1 5.8 70 1019.5 9.2 NW 11.4 0.0 0.6
12:08 11.1 5.8 70 1019.5 9.2 N 11.4 0.0 0.6
12:09 11.0 5.7 70 1019.7 10.7 NW 11.4 0.0 0.6
12:10 11.0 5.5 69 1019.7 10.7 NE 11.4 0.0 0.6
12:11 10.9 5.4 69 1019.6 13.0 SW 13.0 0.0 0.6
12:12 10.9 5.4 69 1019.9 13.6 N 13.6 0.0 0.6
12:13 10.9 5.2 68 1019.7 13.6 N 13.6 0.0 0.6
12:14 10.8 4.9 67 1019.7 14.5 NE 14.5 0.0 0.6
12:15 10.8 4.9 67 1019.6 15.2 S 15.2 0.0 0.6
12:16 10.7 4.8 67 1019.5 9.8 N 15.2 0.0 0.6
12:17 10.7 4.8 67 1019.6 10.7 W 15.2 0.0 0.6
12:18 10.7 4.8 67 1019.6 10.7 E 15.2 0.0 0.6
12:19 10.8 4.9 67 1019.5 15.2 NNE 15.2 0.0 0.6
12:20 10.8 4.9 67 1019.8 9.8 NE 15.2 0.0 0.6
12:21 10.8 4.9 67 1019.8 9.8 NE 15.2 0.0 0.6
12:22 10.8 4.9 67 1019.5 6.0 N 15.2 0.0 0.6
12:23 10.9 5.2 68 1019.6 9.2 E 15.2 0.0 0.6
12:24 10.9 5.2 68 1019.8 9.8 S 15.2 0.0 0.6
12:25 10.9 5.2 68 1019.7 8.3 N 15.2 0.0 0.6
12:26 10.9 5.2 68 1019.9 10.7 NE 15.2 0.0 0.6
12:27 11.0 5.3 68 1019.4 13.6 N 15.2 0.0 0.6
12:28 11.0 5.1 67 1019.5 13.0 W 15.2 0.0 0.6
12:29 11.0 4.9 66 1019.5 12.1 NE 15.2 0.0 0.6
12:30 11.0 4.9 66 1019.7 8.3 N 13.6 0.0 0.6
12:31 11.0 4.9 66 1019.6 8.3 N 13.6 0.0 0.6
12:32 11.0 5.1 67 1019.7 9.2 NE 13.6 0.0 0.6
12:33 11.1 5.2 67 1019.3 9.2 N 13.6 0.0 0.6
12:34 11.1 5.2 67 1019.5 16.8 N 16.8 0.0 0.6
12:35 11.1 5.0 66 1019.5 16.8 N 16.8 0.0 0.6
12:36 11.1 5.0 66 1019.6 11.4 NE 16.8 0.0 0.6
12:37 11.0 4.9 66 1019.5 15.9 E 16.8 0.0 0.6
12:38 11.0 4.9 66 1019.5 13.0 W 16.8 0.0 0.6
12:39 11.0 4.9 66 1019.5 14.5 NE 17.4 0.0 0.6
12:40 10.9 4.8 66 1019.4 14.5 N 17.4 0.0 0.6
12:41 10.9 4.8 66 1019.4 9.8 E 17.4 0.0 0.6
12:42 10.9 5.0 67 1019.2 9.8 N 17.4 0.0 0.6
12:43 10.9 5.0 67 1019.3 13.6 N 17.4 0.0 0.6
12:44 11.0 5.1 67 1019.4 14.5 N 17.4 0.0 0.6
12:45 10.9 5.0 67 1019.5 9.2 NE 17.4 0.0 0.6
12:46 10.9 5.0 67 1019.4 9.2 NNE 17.4 0.0 0.6
12:47 10.9 4.8 66 1019.7 9.8 NE 17.4 0.0 0.6
12:48 10.9 4.8 66 1019.5 15.2 S 17.4 0.0 0.6
12:49 10.9 4.8 66 1019.3 9.2 E 16.8 0.0 0.6
12:50 10.9 4.8 66 1019.3 9.2 E 16.8 0.0 0.6
12:51 10.9 5.0 67 1019.4 10.7 N 16.8 0.0 0.6
12:52 11.0 5.1 67 1019.4 10.7 N 16.8 0.0 0.6
12:53 11.0 5.1 67 1019.4 7.6 NW 15.2 0.0 0.6
12:54 11.0 5.1 67 1019.6 9.8 W 15.2 0.0 0.6
12:55 11.1 5.4 68 1019.5 9.2 E 15.2 0.0 0.6
12:56 11.1 5.4 68 1019.4 12.1 NW 15.2 0.0 0.6
12:57 11.1 5.2 67 1019.5 9.8 NE 15.2 0.0 0.6
12:58 11.1 5.0 66 1019.5 9.8 NE 15.2 0.0 0.6
12:59 11.1 5.0 66 1019.3 13.6 N 13.6 0.0 0.6
13:00 11.1 4.8 65 1019.5 12.1 N 13.6 0.0 0.6
13:01 11.1 4.8 65 1019.6 12.1 N 13.6 0.0 0.6
13:02 11.1 4.8 65 1019.4 12.1 N 13.6 0.0 0.6
13:03 11.0 4.5 64 1019.7 15.2 S 15.2 0.0 0.6
13:04 11.0 4.7 65 1019.4 11.4 SW 15.2 0.0 0.6
13:05 11.0 4.7 65 1019.4 11.4 SW 15.2 0.0 0.6
13:06 11.1 4.8 65 1019.5 12.1 NE 15.2 0.0 0.6
13:07 11.1 4.6 64 1019.4 11.4 NE 15.2 0.0 0.6
13:08 11.1 4.6 64 1019.4 11.4 NE 15.2 0.0 0.6
13:09 11.1 4.6 64 1019.3 14.5 NE 15.2 0.0 0.6
13:10 11.1 4.6 64 1019.4 15.2 W 15.2 0.0 0.6
13:11 11.1 4.6 64 1019.4 6.9 N 15.2 0.0 0.6
13:12 11.1 4.8 65 1019.7 7.6 NW 15.2 0.0 0.6
13:14 11.2 4.9 65 1019.7 9.8 N 15.2 0.0 0.6
13:15 11.2 4.6 64 1019.6 9.2 E 15.2 0.0 0.6
13:16 11.3 4.7 64 1019.6 11.4 SW 15.2 0.0 0.6
13:17 11.2 4.4 63 1019.6 15.2 NW 15.2 0.0 0.6
13:18 11.2 4.4 63 1019.7 13.6 E 15.2 0.0 0.6
13:19 11.2 4.4 63 1019.7 12.1 N 15.2 0.0 0.6
13:20 11.1 4.3 63 1019.6 9.8 NW 15.2 0.0 0.6
13:21 11.1 4.3 63 1019.3 9.8 N 15.2 0.0 0.6
13:22 11.1 4.3 63 1019.3 9.8 N 15.2 0.0 0.6
13:23 11.1 4.3 63 1019.4 11.4 N 15.2 0.0 0.6
13:24 11.1 4.3 63 1019.6 11.4 N 15.2 0.0 0.6
13:25 11.1 4.3 63 1019.5 11.4 W 15.2 0.0 0.6
13:26 11.1 4.6 64 1019.2 12.1 NW 15.2 0.0 0.6
13:27 11.1 4.6 64 1019.3 13.0 NE 15.2 0.0 0.6
13:28 11.1 4.6 64 1019.3 10.7 N 15.2 0.0 0.6
13:29 11.1 4.6 64 1019.4 9.2 E 13.0 0.0 0.6
13:30 11.2 4.9 65 1019.3 6.0 N 13.0 0.0 0.6
13:31 11.2 4.9 65 1019.3 9.2 N 13.0 0.0 0.6
13:32 11.3 5.2 66 1019.4 8.3 N 13.0 0.0 0.6
13:33 11.3 5.2 66 1019.3 6.9 N 13.0 0.0 0.6
13:34 11.3 5.2 66 1019.3 6.9 N 13.0 0.0 0.6
13:35 11.4 5.3 66 1019.2 9.2 NW 13.0 0.0 0.6
13:36 11.4 5.3 66 1019.1 8.3 N 13.0 0.0 0.6
13:37 11.4 5.3 66 1019.1 8.3 N 13.0 0.0 0.6
13:38 11.5 5.4 66 1019.2 15.2 N 15.2 0.0 0.6
13:39 11.5 5.2 65 1019.3 11.4 E 15.2 0.0 0.6
13:40 11.5 5.2 65 1019.2 13.6 N 15.2 0.0 0.6
13:41 11.4 4.8 64 1019.3 13.6 NE 15.2 0.0 0.6
13:42 11.4 4.8 64 1019.1 12.1 N 15.2 0.0 0.6
13:43 11.4 4.8 64 1019.0 8.3 N 15.2 0.0 0.6
13:44 11.3 4.7 64 1019.1 10.7 N 15.9 0.0 0.6
13:45 11.3 4.5 63 1019.1 12.1 N 15.9 0.0 0.6
13:46 11.2 4.4 63 1019.2 5.4 NE 15.9 0.0 0.6
13:47 11.2 4.4 63 1019.1 14.5 N 15.9 0.0 0.6
13:48 11.1 4.3 63 1019.0 12.1 N 15.9 0.0 0.6
13:49 11.1 4.3 63 1019.2 9.8 N 15.9 0.0 0.6
13:50 11.1 4.3 63 1019.0 14.5 N 15.9 0.0 0.6
13:51 11.1 4.3 63 1019.2 14.5 N 15.9 0.0 0.6
13:52 11.0 4.2 63 1019.2 12.1 NE 15.9 0.0 0.6
13:53 11.0 4.2 63 1018.9 13.0 W 15.9 0.0 0.6
13:54 11.0 4.2 63 1019.2 7.6 N 15.9 0.0 0.6
13:55 10.9 4.4 64 1019.2 13.0 NW 14.5 0.0 0.6
13:56 10.9 4.4 64 1019.2 9.8 NW 14.5 0.0 0.6
13:57 10.9 4.4 64 1019.3 9.8 N 14.5 0.0 0.6
13:58 10.9 4.6 65 1019.0 7.6 SW 14.5 0.0 0.6
13:59 11.0 4.9 66 1019.1 17.4 N 17.4 0.0 0.6
14:00 10.9 5.0 67 1018.9 6.9 N 17.4 0.0 0.6
14:01 10.9 5.0 67 1019.1 6.9 N 17.4 0.0 0.6
14:02 10.9 5.0 67 1019.1 6.9 N 17.4 0.0 0.6
14:03 10.9 5.2 68 1018.9 12.1 N 17.4 0.0 0.6
14:04 10.9 5.4 69 1018.9 9.8 N 17.4 0.0 0.6
14:05 10.9 5.4 69 1018.9 9.8 N 17.4 0.0 0.6
14:06 10.8 5.3 69 1018.8 9.8 W 17.4 0.0 0.6
14:07 10.8 5.1 68 1018.9 9.8 N 17.4 0.0 0.6
14:08 10.8 5.1 68 1019.0 9.8 N 17.4 0.0 0.6
14:09 10.8 5.1 68 1018.9 9.8 N 17.4 0.0 0.6
14:10 10.8 5.1 68 1018.9 7.6 N 12.1 0.0 0.6
14:11 10.8 5.1 68 1018.8 11.4 W 12.1 0.0 0.6
14:12 10.7 5.0 68 1019.0 8.3 NW 12.1 0.0 0.6
14:13 10.7 5.0 68 1019.0 12.1 N 12.1 0.0 0.6
14:14 10.7 5.0 68 1018.9 15.9 NE 15.9 0.0 0.6
14:15 10.6 4.9 68 1019.2 11.4 WNW 15.9 0.0 0.6
14:16 10.6 4.7 67 1019.1 11.4 NE 15.9 0.0 0.6
14:17 10.6 4.5 66 1018.9 12.1 NW 15.9 0.0 0.6
14:18 10.6 4.5 66 1019.2 12.1 NW 15.9 0.0 0.6
14:19 10.5 4.2 65 1018.9 10.7 SE 15.9 0.0 0.6
14:20 10.5 4.2 65 1019.0 11.4 NE 15.9 0.0 0.6
14:21 10.5 4.0 64 1019.0 11.4 NW 15.9 0.0 0.6
14:22 10.5 4.0 64 1019.0 11.4 NW 15.9 0.0 0.6
14:23 10.5 4.2 65 1019.0 6.9 NE 15.9 0.0 0.6
14:24 10.5 4.2 65 1018.9 6.9 S 15.9 0.0 0.6
14:25 10.6 4.3 65 1018.9 6.0 SE 13.6 0.0 0.6
14:26 10.6 4.3 65 1019.0 7.6 N 13.6 0.0 0.6
14:27 10.7 4.6 66 1019.1 9.2 N 13.6 0.0 0.6
14:28 10.7 4.6 66 1019.0 12.1 N 13.6 0.0 0.6
14:29 10.8 4.7 66 1019.0 12.1 N 13.6 0.0 0.6
14:30 10.8 4.5 65 1019.1 10.7 NE 12.1 0.0 0.6
14:31 10.8 4.5 65 1019.2 10.7 NE 12.1 0.0 0.6
14:32 10.7 4.6 66 1019.2 7.6 NW 12.1 0.0 0.6
14:33 10.7 4.6 66 1019.1 9.2 E 12.1 0.0 0.6
14:34 10.7 4.6 66 1019.1 13.6 NW 13.6 0.0 0.6
14:35 10.7 4.6 66 1019.1 13.6 NW 13.6 0.0 0.6
14:36 10.5 4.2 65 1019.0 8.3 NE 13.6 0.0 0.6
14:37 10.5 4.2 65 1019.2 6.0 N 13.6 0.0 0.6
14:38 10.5 4.2 65 1019.2 6.0 N 13.6 0.0 0.6
14:39 10.4 4.3 66 1019.1 9.2 NW 13.6 0.0 0.6
14:40 10.4 4.3 66 1019.1 9.8 NW 13.6 0.0 0.6
14:41 10.4 4.3 66 1018.9 9.8 NE 13.6 0.0 0.6
14:42 10.4 4.3 66 1018.9 9.8 NE 13.6 0.0 0.6
14:43 10.3 4.4 67 1019.0 7.6 N 13.6 0.0 0.6
14:44 10.3 4.4 67 1019.0 9.8 W 13.6 0.0 0.6
14:45 10.3 4.7 68 1019.0 12.1 N 12.1 0.0 0.6
14:46 10.3 4.7 68 1019.1 12.1 N 12.1 0.0 0.6
14:47 10.3 4.7 68 1019.2 10.7 E 12.1 0.0 0.6
14:48 10.2 4.6 68 1019.1 9.8 N 12.1 0.0 0.6
14:49 10.2 4.6 68 1019.2 11.4 N 12.1 0.0 0.6
14:50 10.2 4.8 69 1019.0 10.7 NE 12.1 0.0 0.6
14:51 10.2 4.8 69 1018.8 10.7 NE 12.1 0.0 0.6
14:52 10.2 4.8 69 1019.1 10.7 NE 12.1 0.0 0.6
14:53 10.2 4.8 69 1019.4 8.3 SE 12.1 0.0 0.6
14:54 10.2 4.8 69 1019.4 13.6 NNE 13.6 0.0 0.6
14:55 10.1 4.7 69 1019.2 12.1 N 16.8 0.0 0.6
14:56 10.1 4.7 69 1019.1 12.1 N 16.8 0.0 0.6
14:57 10.0 4.6 69 1019.1 11.4 NW 16.8 0.0 0.6
14:58 9.9 4.5 69 1019.0 8.3 N 16.8 0.0 0.6
14:59 9.8 4.6 70 1019.1 6.9 NE 16.8 0.0 0.6
15:00 9.8 4.6 70 1019.3 9.2 NE 16.8 0.0 0.6
15:01 9.8 4.6 70 1019.3 9.2 NE 16.8 0.0 0.6
15:02 9.8 4.6 70 1019.1 9.2 NE 16.8 0.0 0.6
15:03 9.8 4.6 70 1019.2 9.2 NE 16.8 0.0 0.6
15:04 9.8 4.6 70 1019.2 9.2 NE 16.8 0.0 0.6
15:05 9.3 4.1 70 1019.4 9.8 W 12.1 0.0 0.6
15:06 9.3 4.1 70 1019.2 6.0 NW 11.4 0.0 0.6
15:07 9.2 4.0 70 1019.3 6.0 NE 9.8 0.0 0.6
15:08 9.2 4.2 71 1019.3 6.9 NE 9.8 0.0 0.6
15:09 9.1 4.1 71 1019.3 6.0 N 9.8 0.0 0.6
15:10 9.1 4.1 71 1019.3 6.0 N 9.8 0.0 0.6
15:11 9.0 4.0 71 1019.3 6.0 N 9.8 0.0 0.6
15:12 9.0 4.0 71 1019.2 6.9 NW 9.8 0.0 0.6
15:13 8.9 3.9 71 1019.3 6.9 W 9.8 0.0 0.6
15:14 8.9 3.9 71 1019.2 6.0 NW 9.8 0.0 0.6
15:15 8.8 4.0 72 1019.2 5.4 N 9.8 0.0 0.6
15:16 8.7 3.9 72 1019.2 5.4 N 9.8 0.0 0.6
15:17 8.7 3.9 72 1019.1 6.0 NW 6.9 0.0 0.6
15:18 8.7 3.9 72 1019.2 6.0 NW 6.9 0.0 0.6
15:19 8.6 3.8 72 1019.2 6.0 N 6.9 0.0 0.6
15:20 8.6 3.8 72 1019.2 8.3 N 8.3 0.0 0.6
15:21 8.5 3.9 73 1019.1 6.9 N 8.3 0.0 0.6
15:22 8.5 3.9 73 1019.2 6.9 NE 8.3 0.0 0.6
15:23 8.4 3.8 73 1019.1 3.8 NE 8.3 0.0 0.6
15:24 8.4 4.0 74 1019.1 6.9 NW 8.3 0.0 0.6
15:25 8.4 4.0 74 1019.1 5.4 N 8.3 0.0 0.6
15:26 8.4 4.0 74 1019.1 5.4 N 8.3 0.0 0.6
15:27 8.3 3.9 74 1019.2 7.6 N 8.3 0.0 0.6
15:28 8.3 4.1 75 1019.3 4.5 NE 8.3 0.0 0.6
15:29 8.3 4.1 75 1019.4 6.0 N 8.3 0.0 0.6
15:30 8.3 4.1 75 1019.4 6.0 N 8.3 0.0 0.6
15:31 8.3 4.3 76 1019.2 9.2 NW 9.2 0.0 0.6
15:32 8.3 4.3 76 1019.4 11.4 N 11.4 0.0 0.6
15:33 8.2 4.2 76 1019.5 12.1 NE 12.1 0.0 0.6
15:34 8.2 4.4 77 1019.3 9.8 NW 12.1 0.0 0.6
15:35 8.2 4.4 77 1019.4 6.9 NW 12.1 0.0 0.6
15:36 8.2 4.6 78 1019.3 7.6 SW 12.1 0.0 0.6
15:37 8.2 4.6 78 1019.4 7.6 NW 12.1 0.0 0.6
15:38 8.2 4.6 78 1019.5 7.6 NW 12.1 0.0 0.6
15:39 8.2 4.6 78 1019.2 7.6 N 12.1 0.0 0.6
15:40 8.1 4.7 79 1019.3 3.8 N 12.1 0.0 0.6
15:41 8.1 4.7 79 1019.3 3.8 N 12.1 0.0 0.6
15:42 8.1 4.7 79 1019.3 6.0 NNE 12.1 0.0 0.6
15:43 8.1 4.7 79 1019.4 10.7 N 12.1 0.0 0.6
15:44 8.0 4.6 79 1019.4 10.7 ESE 12.1 0.0 0.6
15:45 8.0 4.6 79 1019.3 9.8 E 10.7 0.0 0.6
15:46 8.0 4.6 79 1019.5 9.8 NW 10.7 0.0 0.6
15:47 8.0 4.4 78 1019.7 9.2 W 10.7 0.8 0.6
15:48 8.0 4.4 78 1019.4 9.8 N 10.7 0.8 0.6
15:49 7.9 4.3 78 1019.3 4.5 NE 10.7 0.8 0.6
15:50 7.9 4.3 78 1019.4 6.0 NE 10.7 0.8 0.6
15:51 7.9 4.3 78 1019.5 6.0 NE 10.7 0.8 0.6
15:52 7.9 4.3 78 1019.4 6.0 NE 10.7 0.0 0.6
15:53 7.9 4.5 79 1019.5 3.8 N 10.7 0.0 0.6
15:54 7.9 4.5 79 1019.4 6.0 N 9.8 0.0 0.6
15:55 7.8 4.4 79 1019.4 6.9 NW 9.8 0.0 0.6
15:56 7.8 4.4 79 1019.5 9.2 NW 9.8 0.0 0.6
15:57 7.8 4.4 79 1019.3 5.4 N 9.8 0.0 0.6
15:58 7.8 4.4 79 1019.2 14.5 E 14.5 0.0 0.6
15:59 7.8 4.4 79 1019.3 6.0 S 14.5 0.0 0.6
16:00 7.8 4.4 79 1019.2 9.2 N 14.5 0.0 0.6
16:01 7.8 4.4 79 1019.2 9.2 N 14.5 0.0 0.6
16:02 7.8 4.4 79 1019.3 9.2 N 14.5 0.0 0.6
16:03 7.8 4.4 79 1019.2 9.8 NE 14.5 0.8 0.7
16:04 7.8 4.4 79 1019.1 5.4 N 14.5 0.8 0.7
16:05 7.7 4.3 79 1019.2 6.9 NE 14.5 0.8 0.7
16:06 7.7 4.3 79 1019.1 6.9 W 14.5 0.8 0.7
16:07 7.7 4.3 79 1019.5 8.3 NE 14.5 0.8 0.7
16:08 7.7 4.3 79 1019.3 3.8 N 14.5 0.0 0.7
16:09 7.7 4.3 79 1019.4 9.8 N 9.8 0.0 0.7
16:10 7.6 4.2 79 1019.4 9.8 N 9.8 0.0 0.7
16:11 7.6 4.2 79 1019.3 6.0 NE 9.8 0.0 0.7
16:12 7.6 4.2 79 1019.4 4.5 N 9.8 0.0 0.7
16:13 7.6 4.2 79 1019.3 4.5 NE 9.8 0.0 0.7
16:14 7.5 4.1 79 1019.2 4.5 NE 9.8 0.0 0.7
16:15 7.5 4.1 79 1019.2 4.5 W 9.8 0.0 0.7
16:16 7.5 4.1 79 1019.3 2.2 E 9.8 0.0 0.7
16:17 7.4 4.5 82 1019.4 4.5 NE 9.8 0.0 0.7
16:18 7.4 4.5 82 1019.3 5.4 NE 9.8 0.0 0.7
16:19 7.4 4.5 82 1019.2 3.8 NE 9.8 0.0 0.7
16:20 7.3 4.4 82 1019.1 5.4 NW 9.8 0.0 0.7
16:21 7.3 4.4 82 1019.1 3.1 NW 6.0 0.0 0.7
16:22 7.3 4.6 83 1019.2 2.2 NW 6.0 0.0 0.7
16:23 7.3 4.6 83 1019.1 2.2 NW 6.0 0.0 0.7
16:24 7.3 4.6 83 1019.2 8.3 N 8.3 0.0 0.7
16:25 7.2 4.5 83 1019.3 6.0 NE 8.3 0.0 0.7
16:26 7.2 4.5 83 1019.3 6.0 NE 8.3 0.0 0.7
16:27 7.2 4.5 83 1019.2 3.1 W 8.3 0.0 0.7
16:28 7.2 4.5 83 1019.2 3.1 NW 8.3 0.0 0.7
16:29 7.2 4.5 83 1019.1 5.4 W 8.3 0.0 0.7
16:30 7.1 4.4 83 1019.2 9.8 NE 9.8 0.0 0.7
16:31 7.1 4.4 83 1019.2 6.0 NE 9.8 0.0 0.7
16:32 7.1 4.4 83 1019.3 5.4 N 9.8 0.0 0.7
16:33 7.1 4.4 83 1019.5 5.4 N 9.8 0.0 0.7
16:34 7.1 4.6 84 1019.4 7.6 NE 9.8 0.0 0.7
16:35 7.1 4.6 84 1019.3 7.6 NW 9.8 0.0 0.7
16:36 7.1 4.6 84 1019.2 9.2 E 9.8 0.0 0.7
16:37 7.1 4.6 84 1019.3 9.2 N 9.8 0.0 0.7
16:38 7.1 4.6 84 1019.4 9.2 N 9.8 0.0 0.7
16:39 7.1 4.6 84 1019.2 6.9 N 9.8 0.0 0.7
16:40 7.1 4.6 84 1019.2 10.7 N 10.7 0.0 0.7
16:41 7.1 4.6 84 1019.2 10.7 N 10.7 0.0 0.7
16:42 7.1 4.6 84 1019.2 10.7 NW 10.7 0.0 0.7
16:43 7.1 4.6 84 1019.0 6.9 N 10.7 0.0 0.7
16:44 7.1 4.6 84 1019.1 7.6 E 10.7 0.0 0.7
16:45 7.1 4.6 84 1019.1 7.6 NNE 10.7 0.0 0.7
16:46 7.1 4.6 84 1019.0 6.9 NE 10.7 0.0 0.7
16:47 7.1 4.6 84 1019.3 6.0 NE 10.7 0.0 0.7
16:48 7.2 4.7 84 1019.2 6.9 N 10.7 0.0 0.7
16:49 7.2 4.5 83 1019.0 6.9 SSE 10.7 0.0 0.7
16:50 7.2 4.5 83 1019.1 6.0 E 10.7 0.0 0.7
16:51 7.2 4.5 83 1019.2 8.3 NE 10.7 0.0 0.7
16:52 7.2 4.5 83 1019.1 8.3 S 8.3 0.0 0.7
16:53 7.2 4.5 83 1019.1 5.4 SE 8.3 0.0 0.7
16:54 7.2 4.5 83 1019.2 6.9 NW 8.3 0.0 0.7
16:55 7.2 4.5 83 1019.2 7.6 NW 8.3 0.0 0.7
16:56 7.2 4.3 82 1019.2 5.4 NW 8.3 0.0 0.7
16:57 7.2 4.3 82 1019.3 9.8 W 9.8 0.0 0.7
16:58 7.2 4.3 82 1019.2 8.3 NE 9.8 0.0 0.7
16:59 7.3 4.4 82 1019.1 7.6 NW 9.8 0.8 0.8
17:00 7.3 4.4 82 1019.2 7.6 N 9.8 0.8 0.8
17:01 7.3 4.4 82 1019.1 7.6 N 9.8 0.8 0.8
17:02 7.3 4.4 82 1019.1 7.6 N 9.8 0.8 0.8
17:03 7.3 4.4 82 1019.3 7.6 N 9.8 0.8 0.8
17:04 7.3 4.4 82 1019.2 7.6 N 9.8 0.0 0.8
17:05 7.3 4.4 82 1019.2 7.6 N 9.8 0.0 0.8
17:06 7.3 4.4 82 1019.3 7.6 N 9.8 0.0 0.8
17:07 7.3 4.6 83 1019.1 4.5 E 8.3 0.0 0.8
17:08 7.3 4.6 83 1019.1 8.3 E 9.2 0.0 0.8
17:09 7.3 4.6 83 1019.2 6.0 E 9.2 0.0 0.8
17:10 7.3 4.6 83 1019.2 6.0 E 9.2 0.0 0.8
17:11 7.3 4.6 83 1019.1 5.4 N 9.2 0.0 0.8
17:12 7.3 4.6 83 1019.4 4.5 SE 9.2 0.8 0.8
17:13 7.3 4.6 83 1019.4 4.5 NE 9.2 0.8 0.8
17:14 7.3 4.6 83 1019.2 6.0 N 9.2 0.8 0.8
17:15 7.3 4.8 84 1019.4 5.4 NE 9.2 0.8 0.8
17:16 7.3 4.8 84 1019.3 3.8 NNW 9.2 0.8 0.8
17:17 7.3 4.8 84 1019.2 3.8 N 9.2 0.0 0.8
17:18 7.3 4.8 84 1019.2 5.4 S 9.2 0.0 0.8
17:19 7.3 4.8 84 1019.2 4.5 NE 8.3 0.0 0.8
17:20 7.3 4.8 84 1019.4 4.5 E 6.0 0.0 0.8
17:21 7.3 4.8 84 1019.0 5.4 NE 6.0 0.0 0.8
17:22 7.3 4.8 84 1019.5 5.4 NW 6.0 0.0 0.8
17:23 7.3 4.8 84 1019.4 3.1 NE 6.0 0.0 0.8
17:24 7.3 4.9 85 1019.4 6.0 NE 6.0 0.0 0.8
17:25 7.3 4.9 85 1019.3 6.9 E 6.9 0.0 0.8
17:26 7.3 4.9 85 1019.4 9.2 NE 9.2 0.0 0.8
17:27 7.3 4.9 85 1019.4 9.8 E 9.8 0.0 0.8
17:28 7.3 4.9 85 1019.4 5.4 NE 9.8 0.0 0.8
17:29 7.3 4.9 85 1019.4 5.4 NW 9.8 0.0 0.8
17:30 7.3 4.9 85 1019.4 5.4 NW 9.8 0.0 0.8
17:31 7.3 4.9 85 1019.4 3.8 N 9.8 0.0 0.8
17:32 7.3 4.9 85 1019.5 3.1 NW 9.8 0.0 0.8
17:33 7.3 4.9 85 1019.3 3.8 NE 9.8 0.0 0.8
17:34 7.3 4.9 85 1019.6 3.8 NE 9.8 0.0 0.8
17:35 7.2 4.8 85 1019.3 2.2 E 9.8 0.0 0.8
17:36 7.2 4.8 85 1019.4 3.1 N 9.8 0.0 0.8
17:37 7.2 4.8 85 1019.4 4.5 N 5.4 0.0 0.8
17:38 7.2 4.8 85 1019.2 4.5 NE 5.4 0.0 0.8
17:39 7.2 4.8 85 1019.3 3.8 NE 5.4 0.0 0.8
17:40 7.1 4.8 85 1019.4 4.5 N 4.5 0.0 0.8
17:41 7.1 4.8 85 1019.3 5.4 N 5.4 0.0 0.8
17:42 7.1 4.8 85 1019.4 6.0 N 6.0 0.0 0.8
17:43 7.1 4.8 85 1019.3 6.0 N 6.0 0.0 0.8
17:44 7.1 4.8 85 1019.4 6.9 N 6.9 0.0 0.8
17:45 7.1 4.8 85 1019.4 6.9 N 6.9 0.0 0.8
17:46 7.1 4.6 84 1019.4 6.9 NW 6.9 0.0 0.8
17:47 7.1 4.6 84 1019.5 6.0 N 6.9 0.0 0.8
17:48 7.1 4.6 84 1019.3 4.5 N 6.9 0.0 0.8
17:49 7.1 4.6 84 1019.3 4.5 NE 6.9 0.0 0.8
17:50 7.1 4.6 84 1019.6 6.0 N 6.9 0.0 0.8
17:51 7.1 4.6 84 1019.3 4.5 NW 6.9 0.0 0.8
17:52 7.2 4.7 84 1019.3 6.0 E 6.9 0.0 0.8
17:53 7.2 4.7 84 1019.2 4.5 NW 6.9 0.0 0.8
17:54 7.2 4.7 84 1019.5 5.4 NW 6.9 0.0 0.8
17:55 7.2 4.7 84 1019.4 5.4 NW 6.9 0.0 0.8
17:56 7.2 4.7 84 1019.4 3.1 NE 6.0 0.0 0.8
17:57 7.2 4.7 84 1019.1 3.8 S 6.0 0.0 0.8
17:58 7.2 4.7 84 1019.5 3.1 NNE 6.0 0.0 0.8
17:59 7.2 4.7 84 1019.4 6.0 N 6.0 0.0 0.8
18:00 7.2 4.7 84 1019.4 6.0 W 6.0 0.0 0.8
18:01 7.2 4.7 84 1019.4 6.0 W 6.0 0.0 0.8
18:02 7.2 4.7 84 1019.4 6.9 N 6.9 0.0 0.8
18:03 7.2 4.7 84 1019.6 4.5 NNE 6.9 0.0 0.8
18:04 7.3 4.8 84 1019.6 5.4 NNE 6.9 0.0 0.8
18:05 7.3 4.8 84 1019.4 9.2 NE 9.2 0.0 0.8
18:06 7.3 4.8 84 1019.4 8.3 N 9.2 0.0 0.8
18:07 7.3 4.8 84 1019.5 6.9 NW 9.2 0.0 0.8
18:08 7.3 4.8 84 1019.5 9.2 N 9.2 0.0 0.8
18:09 7.3 4.8 84 1019.5 9.2 N 9.2 0.0 0.8
18:10 7.4 4.9 84 1019.7 5.4 NW 9.2 0.0 0.8
18:11 7.4 4.9 84 1019.3 4.5 SE 9.2 0.0 0.8
18:12 7.4 4.9 84 1019.6 6.9 N 9.2 0.0 0.8
18:13 7.4 4.9 84 1019.4 6.9 N 9.2 0.0 0.8
18:14 7.4 4.9 84 1019.4 6.9 N 9.2 0.0 0.8
18:15 7.5 4.3 80 1019.5 4.5 N 9.2 0.0 0.8
18:16 7.5 4.3 80 1019.7 8.3 NW 9.2 0.0 0.8
18:17 7.5 4.3 80 1019.6 8.3 NW 9.2 0.0 0.8
18:18 7.5 4.3 80 1019.7 7.6 N 9.2 0.0 0.8
18:19 7.6 4.4 80 1019.7 13.0 NNE 13.0 0.0 0.8
18:20 7.6 4.4 80 1019.5 9.8 E 13.0 0.0 0.8
18:21 7.6 4.4 80 1019.6 11.4 W 13.0 0.0 0.8
18:22 7.6 4.4 80 1019.5 9.8 NE 13.0 0.0 0.8
18:23 7.6 4.4 80 1019.4 9.8 N 13.0 0.0 0.8
18:24 7.6 4.4 80 1019.6 9.2 NW 13.0 0.0 0.8
18:25 7.6 4.6 81 1019.5 9.2 N 13.0 0.0 0.8
18:26 7.6 4.6 81 1019.6 9.2 NW 13.0 0.0 0.8
18:27 7.6 4.6 81 1019.6 9.8 W 13.0 0.0 0.8
18:28 7.6 4.6 81 1019.6 6.0 N 13.0 0.0 0.8
18:29 7.6 4.6 81 1019.7 6.9 NE 13.0 0.0 0.8
18:30 7.6 4.6 81 1019.5 9.8 SE 11.4 0.0 0.8
18:31 7.6 4.6 81 1019.7 9.2 N 11.4 0.0 0.8
18:32 7.6 4.6 81 1019.4 6.9 N 9.8 0.0 0.8
18:33 7.6 4.6 81 1019.7 6.0 SW 9.8 0.0 0.8
18:34 7.6 4.6 81 1019.6 4.5 N 9.8 0.0 0.8
18:35 7.6 4.6 81 1019.5 6.9 SE 9.8 0.0 0.8
18:36 7.6 4.6 81 1019.6 4.5 NE 9.8 0.0 0.8
18:37 7.6 4.6 81 1019.6 3.1 N 9.8 0.0 0.8
18:38 7.6 4.6 81 1019.7 3.8 W 9.8 0.0 0.8
18:39 7.6 4.6 81 1019.6 4.5 N 9.8 0.0 0.8
18:40 7.6 4.6 81 1019.6 6.9 E 9.8 0.0 0.8
18:41 7.6 4.6 81 1019.5 7.6 N 7.6 0.0 0.8
18:42 7.6 4.6 81 1019.5 9.2 N 9.2 0.0 0.8
18:43 7.6 4.6 81 1019.4 8.3 N 9.2 0.0 0.8
18:44 7.6 4.6 81 1019.6 5.4 NE 9.2 0.0 0.8
18:45 7.6 4.6 81 1019.5 5.4 W 9.2 0.0 0.8
18:46 7.6 4.6 81 1019.6 6.9 NW 9.2 0.0 0.8
18:47 7.6 4.6 81 1019.5 8.3 NW 9.2 0.0 0.8
18:48 7.6 4.4 80 1019.5 5.4 W 9.2 0.0 0.8
18:49 7.6 4.4 80 1019.3 15.2 N 15.2 0.0 0.8
18:50 7.6 4.4 80 1019.6 8.3 E 15.2 0.0 0.8
18:51 7.7 4.5 80 1019.7 10.7 W 15.2 0.0 0.8
18:52 7.7 4.5 80 1019.5 7.6 NW 15.2 0.0 0.8
18:53 7.7 4.5 80 1019.5 10.7 N 15.2 0.0 0.8
18:54 7.7 4.5 80 1019.6 6.9 NW 15.2 0.0 0.8
18:55 7.7 4.5 80 1019.4 10.7 N 15.2 0.0 0.8
18:56 7.7 4.5 80 1019.3 9.2 NW 15.2 0.8 0.9
18:57 7.7 4.5 80 1019.5 12.1 NW 15.2 0.8 0.9
18:58 7.7 4.5 80 1019.5 12.1 NW 15.2 0.8 0.9
18:59 7.7 4.6 81 1019.3 10.7 NW 15.2 0.8 0.9
19:00 7.7 4.6 81 1019.2 10.7 NW 12.1 0.8 0.9
19:01 7.7 4.6 81 1019.5 10.7 NW 12.1 0.0 0.9
19:02 7.7 4.6 81 1019.4 10.7 NW 12.1 0.0 0.9
19:03 7.7 4.6 81 1019.4 10.7 NW 12.1 0.0 0.9
19:04 7.7 4.6 81 1019.4 10.7 NW 12.1 0.0 0.9
19:05 7.7 4.6 81 1019.3 10.7 NW 12.1 0.0 0.9
19:06 7.7 4.6 81 1019.3 10.7 NW 12.1 0.0 0.9
19:07 7.6 4.6 81 1019.5 5.4 NE 12.1 0.8 0.9
19:08 7.6 4.6 81 1019.6 10.7 N 10.7 0.8 0.9
19:09 7.5 4.5 81 1019.4 6.9 N 10.7 0.8 0.9
19:10 7.5 4.5 81 1019.5 6.9 W 10.7 0.8 0.9
19:11 7.5 4.5 81 1019.4 8.3 NW 10.7 0.8 0.9
19:12 7.5 4.5 81 1019.5 9.2 W 10.7 0.0 0.9
19:13 7.5 4.5 81 1019.3 6.0 SW 10.7 0.0 0.9
19:14 7.4 5.4 87 1019.2 8.3 N 10.7 0.0 0.9
19:15 7.4 5.4 87 1019.2 11.4 N 11.4 0.0 0.9
19:16 7.4 5.4 87 1019.4 9.8 NW 11.4 0.0 0.9
19:17 7.4 5.4 87 1019.4 9.8 NW 11.4 0.0 0.9
19:18 7.4 5.4 87 1019.3 9.2 N 11.4 0.0 0.9
19:19 7.4 5.4 87 1019.4 10.7 N 12.1 0.0 0.9
19:20 7.4 5.4 87 1019.1 9.2 N 12.1 0.0 0.9
19:21 7.4 5.4 87 1019.3 13.6 NW 13.6 0.0 0.9
19:22 7.3 5.3 87 1019.3 9.2 NE 13.6 0.0 0.9
19:23 7.3 5.3 87 1019.4 8.3 N 13.6 0.0 0.9
19:24 7.3 5.4 88 1019.2 9.2 NE 13.6 0.0 0.9
19:25 7.3 5.4 88 1019.3 8.3 N 13.6 0.0 0.9
19:26 7.3 5.4 88 1019.3 9.2 NE 13.6 0.0 0.9
19:27 7.3 5.4 88 1019.2 9.2 NE 13.6 0.0 0.9
19:28 7.3 5.4 88 1019.2 12.1 N 13.6 0.0 0.9
19:29 7.3 5.4 88 1019.4 12.1 N 13.6 0.0 0.9
19:30 7.3 5.4 88 1019.2 9.8 E 13.6 0.0 0.9
19:31 7.3 5.4 88 1019.3 9.8 E 12.1 0.0 0.9
19:32 7.3 5.4 88 1019.2 9.8 E 12.1 0.0 0.9
19:33 7.3 5.4 88 1019.2 7.6 N 12.1 0.0 0.9
19:34 7.2 5.3 88 1019.0 6.9 E 12.1 0.0 0.9
19:35 7.2 5.3 88 1019.0 6.9 N 12.1 0.0 0.9
19:36 7.2 5.3 88 1019.3 6.0 NW 12.1 0.0 0.9
19:37 7.2 5.3 88 1019.0 8.3 N 12.1 0.0 0.9
19:38 7.2 5.3 88 1019.4 6.9 NE 12.1 0.0 0.9
19:39 7.2 5.3 88 1019.0 9.8 N 12.1 0.0 0.9
19:40 7.2 5.3 88 1019.3 9.8 W 9.8 0.0 0.9
19:41 7.1 5.2 88 1019.2 9.2 N 9.8 0.0 0.9
19:42 7.1 5.2 88 1019.1 8.3 NW 9.8 0.0 0.9
19:43 7.1 5.2 88 1019.3 6.0 N 9.8 0.0 0.9
19:44 7.1 5.2 88 1019.0 7.6 E 9.8 0.0 0.9
19:45 7.1 5.2 88 1019.1 8.3 NW 9.8 0.0 0.9
19:46 7.1 5.2 88 1019.1 8.3 S 9.8 0.0 0.9
19:47 7.0 5.2 88 1019.2 8.3 N 9.8 0.0 0.9
19:48 7.1 5.2 88 1019.1 7.6 E 9.8 0.0 0.9
19:49 7.0 5.2 88 1018.9 7.6 SW 9.8 0.0 0.9
19:50 7.0 5.0 87 1019.0 6.0 N 9.8 0.0 0.9
19:51 7.0 5.0 87 1019.3 4.5 NE 9.2 0.0 0.9
19:52 7.0 5.0 87 1019.0 5.4 NNE 8.3 0.0 0.9
19:53 7.0 5.0 87 1019.0 7.6 N 8.3 0.0 0.9
19:54 7.0 5.0 87 1019.1 4.5 NE 8.3 0.0 0.9
19:55 7.0 5.0 87 1019.0 6.0 N 8.3 0.0 0.9
19:56 6.9 4.9 87 1019.2 7.6 N 8.3 0.0 0.9
19:57 6.9 4.9 87 1019.1 8.3 N 8.3 0.0 0.9
19:58 6.9 4.9 87 1019.2 8.3 NE 8.3 0.0 0.9
19:59 6.9 4.7 86 1019.1 8.3 N 8.3 0.0 0.9
20:00 6.9 4.7 86 1019.1 8.3 NW 8.3 0.0 0.9
20:01 6.9 4.7 86 1019.0 5.4 NE 8.3 0.0 0.9
20:02 6.9 4.7 86 1019.0 6.9 SE 8.3 0.0 0.9
20:03 6.9 4.7 86 1018.8 4.5 NW 8.3 0.0 0.9
20:04 6.8 4.6 86 1019.0 4.5 E 8.3 0.0 0.9
20:05 6.8 4.6 86 1019.0 6.0 N 8.3 0.0 0.9
20:06 6.8 4.6 86 1018.9 6.9 NE 8.3 0.0 0.9
20:07 6.8 4.6 86 1018.9 6.0 N 8.3 0.0 0.9
20:08 6.8 4.8 87 1018.7 4.5 NE 8.3 0.0 0.9
20:09 6.8 4.8 87 1019.0 6.9 W 8.3 0.0 0.9
20:10 6.8 4.8 87 1019.0 6.9 W 6.9 0.0 0.9
20:11 6.8 4.8 87 1018.9 9.8 NW 9.8 0.0 0.9
20:12 6.8 4.8 87 1018.8 6.9 N 9.8 0.0 0.9
20:13 6.9 4.9 87 1019.0 5.4 N 9.8 0.0 0.9
20:14 6.9 4.9 87 1018.9 5.4 N 9.8 0.0 0.9
20:15 6.9 4.9 87 1018.9 5.4 N 9.8 0.0 0.9
20:16 6.9 4.9 87 1019.0 7.6 W 9.8 0.0 0.9
20:17 6.9 4.9 87 1019.0 7.6 W 9.8 0.0 0.9
20:18 6.9 4.9 87 1019.0 4.5 WSW 9.8 0.0 0.9
20:19 6.9 4.9 87 1018.8 7.6 N 9.8 0.0 0.9
20:20 6.9 4.9 87 1018.9 8.3 S 9.8 0.0 0.9
20:21 6.9 4.9 87 1018.8 8.3 S 9.8 0.0 0.9
20:22 6.9 4.9 87 1018.7 8.3 NW 8.3 0.0 0.9
20:23 7.0 5.0 87 1018.8 8.3 NE 8.3 0.0 0.9
20:24 7.0 5.0 87 1018.9 12.1 N 12.1 0.0 0.9
20:25 7.0 5.0 87 1019.0 5.4 N 12.1 0.0 0.9
20:26 7.0 5.0 87 1018.9 5.4 N 12.1 0.0 0.9
20:27 7.0 5.0 87 1018.8 5.4 N 12.1 0.0 0.9
20:28 7.0 5.0 87 1018.9 6.9 NE 12.1 0.0 0.9
20:29 7.0 5.0 87 1019.0 6.0 NW 12.1 0.0 0.9
20:30 7.0 5.0 87 1019.0 6.0 NW 12.1 0.0 0.9
20:31 7.0 5.2 88 1019.0 3.8 NW 12.1 0.8 1.0
20:32 7.0 5.2 88 1018.9 5.4 NE 12.1 0.8 1.0
20:33 7.0 5.2 88 1018.9 6.9 N 12.1 0.8 1.0
20:34 7.0 5.2 88 1018.8 6.9 N 12.1 0.8 1.0
20:35 7.0 5.2 88 1019.0 6.0 N 12.1 0.8 1.0
20:36 7.0 5.2 88 1019.0 6.0 N 7.6 0.0 1.0
20:37 7.0 5.2 88 1018.8 6.9 N 7.6 0.0 1.0
20:38 7.0 5.2 88 1019.0 6.9 NE 7.6 0.0 1.0
20:39 7.0 5.2 88 1018.8 4.5 N 6.9 0.0 1.0
20:40 7.0 5.2 88 1018.8 3.8 NE 6.9 0.0 1.0
20:41 7.0 5.2 88 1019.0 4.5 NW 6.9 0.0 1.0
20:42 7.0 5.2 88 1018.9 4.5 NW 6.9 0.0 1.0
20:43 6.9 5.1 88 1018.8 6.0 N 6.9 0.0 1.0
20:44 6.9 5.1 88 1019.1 5.4 W 6.9 0.0 1.0
20:45 6.9 5.1 88 1018.7 5.4 NE 6.9 0.0 1.0
20:46 6.9 5.1 88 1018.7 5.4 NE 6.9 0.0 1.0
20:47 6.9 5.1 88 1018.5 6.9 N 6.9 0.0 1.0
20:48 6.9 5.1 88 1018.5 4.5 N 6.9 0.0 1.0
20:49 6.9 5.1 88 1018.6 7.6 NE 7.6 0.0 1.0
20:50 6.9 5.1 88 1018.8 7.6 NNW 7.6 0.0 1.0
20:51 6.9 5.1 88 1018.5 6.0 NE 7.6 0.0 1.0
20:52 6.9 5.2 89 1018.4 6.9 N 7.6 0.0 1.0
20:53 6.9 5.2 89 1018.5 4.5 N 7.6 0.0 1.0
20:54 6.9 5.2 89 1018.8 4.5 N 7.6 0.0 1.0
20:55 6.9 5.2 89 1018.8 4.5 N 7.6 0.0 1.0
20:56 6.9 5.2 89 1018.6 6.0 NW 7.6 0.0 1.0
20:57 6.9 5.2 89 1018.6 3.8 NW 7.6 0.0 1.0
20:58 6.9 5.2 89 1018.5 3.8 NW 7.6 0.0 1.0
20:59 6.9 5.2 89 1018.5 3.1 NW 7.6 0.8 1.1
21:00 6.9 5.2 89 1018.7 3.1 N 6.9 0.8 1.1
21:01 6.9 5.2 89 1018.6 3.1 N 6.9 0.8 1.1
21:02 6.9 5.2 89 1018.7 3.1 N 6.9 0.8 1.1
21:03 6.9 5.2 89 1018.6 3.1 N 6.0 0.8 1.1
21:04 6.9 5.2 89 1018.7 3.1 N 6.0 0.0 1.1
21:05 6.9 5.2 89 1018.5 3.1 N 6.0 0.0 1.1
21:06 6.9 5.2 89 1018.7 3.1 N 6.0 0.0 1.1
21:07 6.9 5.2 89 1018.4 5.4 NW 5.4 0.0 1.1
21:08 6.9 5.2 89 1018.4 6.0 NW 6.0 0.0 1.1
21:09 6.9 5.2 89 1018.2 6.0 NW 6.0 0.0 1.1
21:10 6.9 5.2 89 1018.6 6.0 SW 6.0 0.0 1.1
21:11 6.9 5.2 89 1018.4 6.0 NW 6.0 0.0 1.1
21:12 6.9 5.4 90 1018.4 5.4 NW 6.0 0.0 1.1
21:13 6.9 5.4 90 1018.4 5.4 NW 6.0 0.0 1.1
21:14 6.9 5.4 90 1018.6 6.0 SW 6.0 0.0 1.1
21:15 6.9 5.4 90 1018.4 9.2 NW 9.2 0.0 1.1
21:16 6.9 5.4 90 1018.6 9.2 NW 9.2 0.0 1.1
21:17 6.9 5.4 90 1018.5 6.9 NW 9.2 0.0 1.1
21:18 6.9 5.4 90 1018.5 6.9 NW 9.2 0.0 1.1
21:19 6.9 5.2 89 1018.3 8.3 NW 9.2 0.0 1.1
21:20 6.9 5.2 89 1018.5 7.6 NW 9.2 0.0 1.1
21:21 6.9 5.2 89 1018.3 8.3 NW 9.2 0.0 1.1
21:22 6.9 5.2 89 1018.4 8.3 W 9.2 0.0 1.1
21:23 6.9 5.2 89 1018.2 6.0 W 9.2 0.0 1.1
21:24 6.9 5.2 89 1018.4 7.6 NW 9.2 0.0 1.1
21:25 6.9 5.2 89 1018.4 6.9 W 9.2 0.0 1.1
21:26 7.0 5.3 89 1018.4 7.6 N 8.3 0.0 1.1
21:27 7.0 5.3 89 1018.3 8.3 NE 8.3 0.0 1.1
21:28 7.0 5.3 89 1018.3 8.3 NW 8.3 0.0 1.1
21:29 7.0 5.2 88 1018.2 6.9 N 8.3 0.0 1.1
21:30 7.0 5.2 88 1018.1 7.6 NW 8.3 0.0 1.1
21:31 7.0 5.2 88 1018.2 5.4 W 8.3 0.0 1.1
21:32 7.0 5.2 88 1018.1 3.1 NE 8.3 0.0 1.1
21:33 7.0 5.0 87 1018.1 7.6 NW 8.3 0.0 1.1
21:34 7.0 5.0 87 1018.1 7.6 NE 8.3 0.0 1.1
21:35 7.0 5.0 87 1018.3 5.4 NW 8.3 0.0 1.1
21:36 7.0 4.8 86 1018.1 5.4 N 8.3 0.0 1.1
21:37 7.0 4.8 86 1018.3 3.8 WNW 8.3 0.0 1.1
21:38 7.0 4.8 86 1018.1 6.0 NW 8.3 0.0 1.1
21:39 6.9 4.6 85 1018.2 3.8 NW 7.6 0.0 1.1
21:40 6.9 4.6 85 1018.1 3.8 WNW 7.6 0.0 1.1
21:41 6.9 4.6 85 1018.1 3.1 W 7.6 0.0 1.1
21:42 6.9 4.6 85 1018.0 3.1 W 7.6 0.0 1.1
21:43 6.9 4.4 84 1018.2 3.1 NE 7.6 0.0 1.1
21:44 6.9 4.4 84 1018.1 2.2 N 6.0 0.0 1.1
21:45 6.8 4.3 84 1017.9 1.6 NW 6.0 0.0 1.1
21:46 6.8 4.3 84 1017.9 1.6 NW 6.0 0.0 1.1
21:47 6.8 4.3 84 1017.8 1.6 NW 6.0 0.0 1.1
21:48 6.7 4.2 84 1017.8 1.6 W 6.0 0.0 1.1
21:49 6.7 4.2 84 1017.8 4.5 S 4.5 0.0 1.1
21:50 6.7 4.2 84 1017.9 3.8 N 4.5 0.0 1.1
21:51 6.7 4.0 83 1018.0 3.8 NE 4.5 0.0 1.1
21:52 6.7 4.0 83 1018.0 5.4 NE 5.4 0.0 1.1
21:53 6.6 3.9 83 1018.1 5.4 NW 5.4 0.0 1.1
21:54 6.6 3.9 83 1018.1 4.5 N 5.4 0.0 1.1
21:55 6.6 3.9 83 1018.1 3.1 NE 5.4 0.0 1.1
21:56 6.6 3.9 83 1018.1 4.5 NW 5.4 0.0 1.1
21:57 6.6 3.9 83 1018.1 3.8 W 5.4 0.0 1.1
21:58 6.6 3.9 83 1018.1 5.4 N 5.4 0.0 1.1
21:59 6.6 3.9 83 1018.2 4.5 NW 5.4 0.0 1.1
22:00 6.6 3.9 83 1018.2 6.9 E 6.9 0.0 1.1
22:01 6.6 3.9 83 1018.0 3.8 NW 6.9 0.0 1.1
22:02 6.6 3.9 83 1018.0 3.8 NW 6.9 0.0 1.1
22:03 6.6 3.9 83 1017.9 4.5 E 6.9 0.0 1.1
22:04 6.6 3.9 83 1017.9 3.8 NW 6.9 0.0 1.1
22:05 6.6 3.9 83 1018.0 6.0 NW 6.9 0.0 1.1
22:06 6.6 3.9 83 1018.1 5.4 N 6.9 0.0 1.1
22:07 6.6 3.9 83 1017.9 9.2 N 9.2 0.0 1.1
22:08 6.7 4.0 83 1018.1 5.4 NW 9.2 0.0 1.1
22:09 6.7 4.0 83 1017.9 7.6 NW 9.2 0.0 1.1
22:10 6.7 4.0 83 1018.1 7.6 NW 9.2 0.0 1.1
22:11 6.7 3.8 82 1018.2 7.6 NW 9.2 0.0 1.1
22:12 6.7 3.8 82 1017.9 3.8 SW 9.2 0.0 1.1
22:13 6.8 3.9 82 1018.0 6.9 NW 9.2 0.0 1.1
22:14 6.8 3.9 82 1018.0 6.9 N 9.2 0.0 1.1
22:15 6.8 3.9 82 1017.7 5.4 NW 9.2 0.0 1.1
22:16 6.8 3.9 82 1017.8 8.3 NW 9.2 0.0 1.1
22:17 6.8 3.9 82 1017.8 8.3 W 9.2 0.0 1.1
22:18 6.8 3.9 82 1017.7 6.0 NE 8.3 0.0 1.1
22:19 6.8 3.9 82 1017.6 3.8 E 8.3 0.0 1.1
22:20 6.8 3.9 82 1017.6 3.1 N 8.3 0.0 1.1
22:21 6.8 3.9 82 1017.5 5.4 NW 8.3 0.0 1.1
22:22 6.8 3.9 82 1017.4 3.8 S 8.3 0.0 1.1
22:23 6.8 3.9 82 1017.8 4.5 N 8.3 0.0 1.1
22:24 6.8 3.9 82 1017.7 9.2 NW 9.2 0.0 1.1
22:25 6.8 3.9 82 1017.7 7.6 N 9.2 0.0 1.1
22:26 6.8 3.9 82 1017.5 7.6 N 9.2 0.0 1.1
22:27 6.8 3.9 82 1017.8 6.0 NW 9.2 0.0 1.1
22:28 6.8 3.9 82 1017.7 7.6 N 9.2 0.0 1.1
22:29 6.8 3.9 82 1017.6 5.4 WSW 9.2 0.0 1.1
22:30 6.8 3.9 82 1017.5 6.9 W 9.2 0.0 1.1
22:31 6.9 4.0 82 1017.4 7.6 N 9.2 0.0 1.1
22:32 6.8 3.8 81 1017.6 7.6 NW 9.2 0.0 1.1
22:33 6.9 3.9 81 1017.4 8.3 S 9.2 0.0 1.1
22:34 6.8 3.8 81 1017.6 7.6 NW 9.2 0.0 1.1
22:35 6.9 3.9 81 1017.2 8.3 N 8.3 0.0 1.1
22:36 6.9 3.9 81 1017.5 6.0 NW 8.3 0.0 1.1
22:37 6.9 3.9 81 1017.4 7.6 WNW 8.3 0.0 1.1
22:38 6.9 3.9 81 1017.4 7.6 WNW 10.7 0.0 1.1
22:39 6.9 3.9 81 1017.3 7.6 W 10.7 0.0 1.1
22:40 6.9 3.9 81 1017.4 7.6 N 10.7 0.0 1.1
22:41 6.9 3.9 81 1017.5 6.0 NW 10.7 0.0 1.1
22:42 6.9 3.9 81 1017.4 6.9 W 10.7 0.0 1.1
22:43 6.9 3.9 81 1017.2 5.4 WSW 10.7 0.0 1.1
22:44 6.9 3.7 80 1017.4 4.5 W 10.7 0.0 1.1
22:45 6.9 3.7 80 1017.3 6.9 NW 10.7 0.0 1.1
22:46 6.9 3.7 80 1017.3 6.9 NW 10.7 0.0 1.1
22:47 6.9 3.7 80 1017.1 5.4 N 10.7 0.0 1.1
22:48 6.8 3.6 80 1017.2 7.6 NW 7.6 0.0 1.1
22:49 6.9 3.7 80 1017.3 5.4 N 7.6 0.0 1.1
22:50 6.8 3.6 80 1017.1 6.9 NW 7.6 0.0 1.1
22:51 6.8 3.6 80 1017.1 6.9 NW 7.6 0.0 1.1
22:52 6.8 3.6 80 1017.1 6.9 NW 7.6 0.0 1.1
22:53 6.8 3.6 80 1017.1 6.0 NW 7.6 0.0 1.1
22:54 6.8 3.4 79 1017.2 8.3 SW 8.3 0.0 1.1
22:55 6.8 3.4 79 1016.9 8.3 W 8.3 0.0 1.1
22:56 6.8 3.4 79 1017.0 7.6 W 8.3 0.0 1.1
22:57 6.8 3.4 79 1017.0 6.9 NW 8.3 0.0 1.1
22:58 6.9 3.5 79 1017.0 6.9 NW 8.3 0.0 1.1
22:59 6.8 3.4 79 1016.9 6.9 NW 8.3 0.0 1.1
23:00 6.9 3.5 79 1017.0 6.9 W 8.3 0.0 1.1
23:01 6.9 3.5 79 1017.2 6.9 W 8.3 0.0 1.1
23:02 6.9 3.5 79 1017.2 6.9 W 8.3 0.0 1.1
23:03 6.9 3.5 79 1017.1 6.9 W 8.3 0.0 1.1
23:04 6.9 3.5 79 1016.9 6.9 W 8.3 0.0 1.1
23:05 6.9 3.5 79 1017.0 6.9 W 8.3 0.0 1.1
23:06 6.9 3.5 79 1016.9 6.9 W 7.6 0.0 1.1
23:07 6.8 3.4 79 1017.1 9.2 N 9.2 0.0 1.1
23:08 6.9 3.5 79 1016.9 4.5 W 9.2 0.0 1.1
23:09 6.8 3.4 79 1016.7 6.0 NE 9.2 0.0 1.1
23:10 6.8 3.4 79 1016.7 6.9 NW 9.2 0.0 1.1
23:11 6.8 3.4 79 1016.8 6.9 NW 9.2 0.0 1.1
23:12 6.8 3.4 79 1016.8 6.9 WNW 9.2 0.0 1.1
23:13 6.8 3.4 79 1016.8 6.0 NW 9.2 0.0 1.1
23:14 6.8 3.4 79 1016.9 6.0 W 9.2 0.0 1.1
23:15 6.8 3.4 79 1016.7 6.9 WNW 9.2 0.0 1.1
23:16 6.7 3.3 79 1016.8 8.3 N 9.2 0.0 1.1
23:17 6.7 3.3 79 1016.5 4.5 NW 8.3 0.0 1.1
23:18 6.7 3.3 79 1016.8 6.0 NW 8.3 0.0 1.1
23:19 6.7 3.3 79 1016.8 6.9 NW 8.3 0.0 1.1
23:20 6.7 3.3 79 1016.5 7.6 NW 8.3 0.0 1.1
23:21 6.7 3.3 79 1016.8 6.9 NW 8.3 0.0 1.1
23:22 6.7 3.3 79 1016.6 7.6 NW 8.3 0.0 1.1
23:23 6.7 3.3 79 1016.7 6.9 W 8.3 0.0 1.1
23:24 6.7 3.3 79 1016.7 6.9 NW 8.3 0.0 1.1
23:25 6.7 3.3 79 1016.7 6.0 W 8.3 0.0 1.1
23:26 6.7 3.3 79 1016.6 2.2 N 8.3 0.0 1.1
23:27 6.7 3.3 79 1016.5 6.0 NW 8.3 0.0 1.1
23:28 6.7 3.3 79 1016.5 8.3 NNW 8.3 0.0 1.1
23:29 6.7 3.3 79 1016.4 6.9 W 8.3 0.0 1.1
23:30 6.7 3.3 79 1016.4 4.5 W 8.3 0.0 1.1
23:31 6.6 3.2 79 1016.4 8.3 NW 8.3 0.0 1.1
23:32 6.6 3.2 79 1016.3 11.4 NW 11.4 0.0 1.1
23:33 6.6 3.2 79 1016.3 10.7 NW 11.4 0.0 1.1
23:34 6.6 3.2 79 1016.3 8.3 NW 11.4 0.0 1.1
23:35 6.6 3.2 79 1016.1 8.3 W 11.4 0.0 1.1
23:36 6.6 3.2 79 1016.3 8.3 SW 11.4 0.0 1.1
23:37 6.6 3.2 79 1016.3 6.0 N 11.4 0.0 1.1
23:38 6.6 3.2 79 1016.2 6.0 N 11.4 0.0 1.1
23:39 6.6 3.2 79 1016.2 7.6 SW 11.4 0.0 1.1
23:40 6.6 3.2 79 1016.1 8.3 N 11.4 0.0 1.1
23:41 6.6 3.2 79 1016.2 8.3 NW 11.4 0.0 1.1
23:42 6.6 3.4 80 1016.2 9.2 N 11.4 0.0 1.1
23:43 6.5 3.3 80 1016.3 9.2 W 10.7 0.0 1.1
23:44 6.6 3.4 80 1016.3 8.3 W 9.2 0.0 1.1
23:45 6.6 3.4 80 1016.3 7.6 NW 9.2 0.0 1.1
23:46 6.6 3.4 80 1016.1 7.6 NW 9.2 0.0 1.1
23:47 6.6 3.4 80 1016.2 5.4 NW 9.2 0.0 1.1
23:48 6.5 3.3 80 1016.0 5.4 SW 9.2 0.0 1.1
23:49 6.5 3.3 80 1016.2 4.5 NW 9.2 0.0 1.1
23:50 6.5 3.3 80 1016.2 4.5 NW 9.2 0.0 1.1
23:51 6.6 3.4 80 1016.2 5.4 W 9.2 0.0 1.1
23:52 6.5 3.3 80 1016.3 9.2 N 9.2 0.0 1.1
23:53 6.6 3.4 80 1016.2 7.6 NW 9.2 0.0 1.1
23:54 6.5 3.3 80 1016.0 7.6 W 9.2 0.0 1.1
23:55 6.6 3.4 80 1015.8 9.8 NW 9.8 0.0 1.1
23:56 6.6 3.4 80 1016.2 9.8 W 9.8 0.0 1.1
23:57 6.6 3.4 80 1016.1 9.8 W 9.8 0.0 1.1
23:58 6.6 3.4 80 1016.1 5.4 W 9.8 0.0 1.1
23:59 6.6 3.4 80 1016.0 9.2 W 9.8 0.0 1.1

 

 

UK - WEATHER STATION TOPSITES - UK World Weather Websites

Copyright © Carnkie Weather 2009 - 2021.